Time,TemperatureF,DewpointF,PressureIn,WindDirection,WindDirectionDegrees,WindSpeedMPH,WindSpeedGustMPH,Humidity,HourlyPrecipIn,Conditions,Clouds,dailyrainin,SoftwareType,DateUTC
2013-03-17 00:01:00,28.7,22.7,30.06,West,263,6.0,7.0,78,0.00,,,0.00,Wunderground v.1.15,2013-03-17 04:01:00,
2013-03-17 00:02:00,28.8,22.5,30.06,WSW,241,6.0,7.0,77,0.00,,,0.00,Wunderground v.1.15,2013-03-17 04:02:00,
2013-03-17 00:03:00,28.8,22.8,30.06,WSW,246,6.0,7.0,78,0.00,,,0.00,Wunderground v.1.15,2013-03-17 04:03:00,
2013-03-17 00:04:00,28.8,22.8,30.06,WSW,238,6.0,7.0,78,0.00,,,0.00,Wunderground v.1.15,2013-03-17 04:04:00,
2013-03-17 00:08:00,28.8,22.5,30.05,WSW,246,6.0,8.0,77,0.00,,,0.00,Wunderground v.1.15,2013-03-17 04:08:00,
2013-03-17 00:09:00,28.8,22.5,30.05,WSW,254,6.0,7.0,77,0.00,,,0.00,Wunderground v.1.15,2013-03-17 04:09:00,
2013-03-17 00:10:00,28.9,22.9,30.06,West,260,6.0,7.0,78,0.00,,,0.00,Wunderground v.1.15,2013-03-17 04:10:00,
2013-03-17 00:11:00,28.9,22.6,30.06,WSW,244,5.0,7.0,77,0.00,,,0.00,Wunderground v.1.15,2013-03-17 04:11:00,
2013-03-17 00:14:00,28.9,23.2,30.06,WSW,250,5.0,7.0,79,0.00,,,0.00,Wunderground v.1.15,2013-03-17 04:14:00,
2013-03-17 00:15:00,28.9,22.9,30.06,WSW,244,5.0,7.0,78,0.00,,,0.00,Wunderground v.1.15,2013-03-17 04:15:00,
2013-03-17 00:17:00,28.9,22.9,30.06,WSW,251,5.0,7.0,78,0.00,,,0.00,Wunderground v.1.15,2013-03-17 04:17:00,
2013-03-17 00:21:00,28.9,22.6,30.06,WSW,244,5.0,9.0,77,0.00,,,0.00,Wunderground v.1.15,2013-03-17 04:21:00,
2013-03-17 00:22:00,28.9,22.9,30.06,SW,235,5.0,9.0,78,0.00,,,0.00,Wunderground v.1.15,2013-03-17 04:22:00,
2013-03-17 00:23:00,29.0,23.0,30.06,West,269,6.0,9.0,78,0.00,,,0.00,Wunderground v.1.15,2013-03-17 04:23:00,
2013-03-17 00:26:00,29.0,23.0,30.06,West,271,6.0,9.0,78,0.00,,,0.00,Wunderground v.1.15,2013-03-17 04:26:00,
2013-03-17 00:27:00,29.0,23.0,30.06,WSW,244,6.0,9.0,78,0.00,,,0.00,Wunderground v.1.15,2013-03-17 04:27:00,
2013-03-17 00:28:00,29.0,23.0,30.06,WSW,244,6.0,9.0,78,0.00,,,0.00,Wunderground v.1.15,2013-03-17 04:28:00,
2013-03-17 00:29:00,29.0,23.3,30.06,West,267,6.0,6.0,79,0.00,,,0.00,Wunderground v.1.15,2013-03-17 04:29:00,
2013-03-17 00:32:00,29.1,23.1,30.06,West,260,6.0,8.0,78,0.00,,,0.00,Wunderground v.1.15,2013-03-17 04:32:00,
2013-03-17 00:34:00,29.0,23.3,30.06,WSW,256,6.0,8.0,79,0.00,,,0.00,Wunderground v.1.15,2013-03-17 04:34:00,
2013-03-17 00:35:00,29.1,23.1,30.06,WSW,253,6.0,8.0,78,0.00,,,0.00,Wunderground v.1.15,2013-03-17 04:35:00,
2013-03-17 00:36:00,29.1,23.1,30.06,WSW,255,6.0,8.0,78,0.00,,,0.00,Wunderground v.1.15,2013-03-17 04:36:00,
2013-03-17 00:40:00,29.1,23.4,30.06,SW,223,6.0,9.0,79,0.00,,,0.00,Wunderground v.1.15,2013-03-17 04:40:00,
2013-03-17 00:41:00,29.1,23.4,30.06,WSW,246,6.0,9.0,79,0.00,,,0.00,Wunderground v.1.15,2013-03-17 04:41:00,
2013-03-17 00:42:00,29.1,23.4,30.06,West,260,6.0,9.0,79,0.00,,,0.00,Wunderground v.1.15,2013-03-17 04:42:00,
2013-03-17 00:43:00,29.2,23.2,30.06,WSW,252,6.0,9.0,78,0.00,,,0.00,Wunderground v.1.15,2013-03-17 04:43:00,
2013-03-17 00:45:00,29.2,23.2,30.06,WSW,256,6.0,9.0,78,0.00,,,0.00,Wunderground v.1.15,2013-03-17 04:45:00,
2013-03-17 00:49:00,29.2,23.2,30.06,SSW,213,7.0,7.0,78,0.00,,,0.00,Wunderground v.1.15,2013-03-17 04:49:00,
2013-03-17 00:51:00,29.2,23.2,30.06,WSW,241,7.0,8.0,78,0.00,,,0.00,Wunderground v.1.15,2013-03-17 04:51:00,
2013-03-17 00:52:00,29.2,23.2,30.06,WSW,254,7.0,8.0,78,0.00,,,0.00,Wunderground v.1.15,2013-03-17 04:52:00,
2013-03-17 00:55:00,29.2,23.5,30.06,WSW,252,7.0,9.0,79,0.00,,,0.00,Wunderground v.1.15,2013-03-17 04:55:00,
2013-03-17 00:57:00,29.2,23.5,30.06,West,263,6.0,9.0,79,0.00,,,0.00,Wunderground v.1.15,2013-03-17 04:57:00,
2013-03-17 00:58:00,29.2,23.5,30.06,West,271,6.0,9.0,79,0.00,,,0.00,Wunderground v.1.15,2013-03-17 04:58:00,
2013-03-17 01:01:00,29.2,23.8,30.06,WSW,255,6.0,9.0,80,0.00,,,0.00,Wunderground v.1.15,2013-03-17 05:01:00,
2013-03-17 01:02:00,29.2,23.5,30.06,WSW,256,6.0,9.0,79,0.00,,,0.00,Wunderground v.1.15,2013-03-17 05:02:00,
2013-03-17 01:04:00,29.2,23.5,30.06,West,260,7.0,9.0,79,0.00,,,0.00,Wunderground v.1.15,2013-03-17 05:04:00,
2013-03-17 01:07:00,29.3,23.9,30.07,West,270,7.0,9.0,80,0.00,,,0.00,Wunderground v.1.15,2013-03-17 05:07:00,
2013-03-17 01:08:00,29.3,23.6,30.07,West,261,7.0,9.0,79,0.00,,,0.00,Wunderground v.1.15,2013-03-17 05:08:00,
2013-03-17 01:11:00,29.3,23.6,30.07,WSW,253,8.0,10.0,79,0.00,,,0.00,Wunderground v.1.15,2013-03-17 05:11:00,
2013-03-17 01:12:00,29.3,23.6,30.07,WSW,257,8.0,10.0,79,0.00,,,0.00,Wunderground v.1.15,2013-03-17 05:12:00,
2013-03-17 01:14:00,29.3,23.6,30.07,WSW,247,8.0,11.0,79,0.00,,,0.00,Wunderground v.1.15,2013-03-17 05:14:00,
2013-03-17 01:18:00,29.3,23.9,30.07,West,273,8.0,11.0,80,0.00,,,0.00,Wunderground v.1.15,2013-03-17 05:18:00,
2013-03-17 01:20:00,29.3,23.9,30.07,West,269,8.0,9.0,80,0.00,,,0.00,Wunderground v.1.15,2013-03-17 05:20:00,
2013-03-17 01:22:00,29.3,23.9,30.07,West,263,8.0,9.0,80,0.00,,,0.00,Wunderground v.1.15,2013-03-17 05:22:00,
2013-03-17 01:24:00,29.3,23.9,30.07,West,266,8.0,12.0,80,0.00,,,0.00,Wunderground v.1.15,2013-03-17 05:24:00,
2013-03-17 01:26:00,29.3,23.9,30.07,West,268,8.0,12.0,80,0.00,,,0.00,Wunderground v.1.15,2013-03-17 05:26:00,
2013-03-17 01:27:00,29.3,23.9,30.07,West,272,8.0,12.0,80,0.00,,,0.00,Wunderground v.1.15,2013-03-17 05:27:00,
2013-03-17 01:30:00,29.2,23.8,30.07,West,269,9.0,10.0,80,0.00,,,0.00,Wunderground v.1.15,2013-03-17 05:30:00,
2013-03-17 01:31:00,29.2,23.8,30.07,West,266,9.0,10.0,80,0.00,,,0.00,Wunderground v.1.15,2013-03-17 05:31:00,
2013-03-17 01:34:00,29.2,23.8,30.07,West,272,9.0,11.0,80,0.00,,,0.00,Wunderground v.1.15,2013-03-17 05:34:00,
2013-03-17 01:37:00,29.3,23.9,30.07,West,269,9.0,11.0,80,0.00,,,0.00,Wunderground v.1.15,2013-03-17 05:37:00,
2013-03-17 01:38:00,29.3,24.2,30.07,West,270,9.0,11.0,81,0.00,,,0.00,Wunderground v.1.15,2013-03-17 05:38:00,
2013-03-17 01:41:00,29.3,23.9,30.07,West,270,9.0,10.0,80,0.00,,,0.00,Wunderground v.1.15,2013-03-17 05:41:00,
2013-03-17 01:42:00,29.3,23.9,30.07,West,273,9.0,10.0,80,0.00,,,0.00,Wunderground v.1.15,2013-03-17 05:42:00,
2013-03-17 01:43:00,29.3,23.9,30.07,West,277,9.0,10.0,80,0.00,,,0.00,Wunderground v.1.15,2013-03-17 05:43:00,
2013-03-17 01:44:00,29.3,24.2,30.07,West,272,9.0,10.0,81,0.00,,,0.00,Wunderground v.1.15,2013-03-17 05:44:00,
2013-03-17 01:47:00,29.3,24.2,30.07,WSW,256,9.0,11.0,81,0.00,,,0.00,Wunderground v.1.15,2013-03-17 05:47:00,
2013-03-17 01:50:00,29.3,24.2,30.07,West,278,9.0,9.0,81,0.00,,,0.00,Wunderground v.1.15,2013-03-17 05:50:00,
2013-03-17 01:51:00,29.3,24.2,30.07,West,265,9.0,9.0,81,0.00,,,0.00,Wunderground v.1.15,2013-03-17 05:51:00,
2013-03-17 01:52:00,29.3,24.2,30.07,West,267,8.0,9.0,81,0.00,,,0.00,Wunderground v.1.15,2013-03-17 05:52:00,
2013-03-17 01:55:00,29.3,24.2,30.07,WNW,289,8.0,9.0,81,0.00,,,0.00,Wunderground v.1.15,2013-03-17 05:55:00,
2013-03-17 01:57:00,29.2,24.1,30.07,WNW,283,7.0,9.0,81,0.00,,,0.00,Wunderground v.1.15,2013-03-17 05:57:00,
2013-03-17 01:58:00,29.2,24.1,30.07,West,263,7.0,9.0,81,0.00,,,0.00,Wunderground v.1.15,2013-03-17 05:58:00,
2013-03-17 02:01:00,29.2,24.1,30.07,West,273,7.0,7.0,81,0.00,,,0.00,Wunderground v.1.15,2013-03-17 06:01:00,
2013-03-17 02:03:00,29.2,24.1,30.07,West,266,7.0,10.0,81,0.00,,,0.00,Wunderground v.1.15,2013-03-17 06:03:00,
2013-03-17 02:07:00,29.2,24.1,30.08,West,274,7.0,10.0,81,0.00,,,0.00,Wunderground v.1.15,2013-03-17 06:07:00,
2013-03-17 02:08:00,29.2,24.4,30.08,West,280,7.0,10.0,82,0.00,,,0.00,Wunderground v.1.15,2013-03-17 06:08:00,
2013-03-17 02:09:00,29.2,24.4,30.08,West,268,7.0,9.0,82,0.00,,,0.00,Wunderground v.1.15,2013-03-17 06:09:00,
2013-03-17 02:10:00,29.2,24.4,30.08,West,260,7.0,10.0,82,0.00,,,0.00,Wunderground v.1.15,2013-03-17 06:10:00,
2013-03-17 02:15:00,29.2,24.4,30.08,WNW,289,7.0,10.0,82,0.00,,,0.00,Wunderground v.1.15,2013-03-17 06:15:00,
2013-03-17 02:17:00,29.2,24.4,30.08,West,271,8.0,11.0,82,0.00,,,0.00,Wunderground v.1.15,2013-03-17 06:17:00,
2013-03-17 02:18:00,29.2,24.4,30.08,WSW,257,8.0,11.0,82,0.00,,,0.00,Wunderground v.1.15,2013-03-17 06:18:00,
2013-03-17 02:19:00,29.2,24.4,30.08,WNW,282,8.0,8.0,82,0.00,,,0.00,Wunderground v.1.15,2013-03-17 06:19:00,
2013-03-17 02:20:00,29.2,24.4,30.08,West,280,8.0,8.0,82,0.00,,,0.00,Wunderground v.1.15,2013-03-17 06:20:00,
2013-03-17 02:22:00,29.2,24.4,30.08,West,277,8.0,10.0,82,0.00,,,0.00,Wunderground v.1.15,2013-03-17 06:22:00,
2013-03-17 02:23:00,29.2,24.4,30.08,West,275,8.0,11.0,82,0.00,,,0.00,Wunderground v.1.15,2013-03-17 06:23:00,
2013-03-17 02:24:00,29.2,24.4,30.08,WNW,289,8.0,11.0,82,0.00,,,0.00,Wunderground v.1.15,2013-03-17 06:24:00,
2013-03-17 02:27:00,29.2,24.4,30.08,West,266,9.0,11.0,82,0.00,,,0.00,Wunderground v.1.15,2013-03-17 06:27:00,
2013-03-17 02:28:00,29.2,24.1,30.08,West,273,9.0,11.0,81,0.00,,,0.00,Wunderground v.1.15,2013-03-17 06:28:00,
2013-03-17 02:29:00,29.2,24.1,30.08,West,270,9.0,9.0,81,0.00,,,0.00,Wunderground v.1.15,2013-03-17 06:29:00,
2013-03-17 02:32:00,29.2,24.4,30.08,West,268,8.0,9.0,82,0.00,,,0.00,Wunderground v.1.15,2013-03-17 06:32:00,
2013-03-17 02:34:00,29.2,24.4,30.09,West,263,7.0,9.0,82,0.00,,,0.00,Wunderground v.1.15,2013-03-17 06:34:00,
2013-03-17 02:35:00,29.2,24.4,30.09,West,281,7.0,9.0,82,0.00,,,0.00,Wunderground v.1.15,2013-03-17 06:35:00,
2013-03-17 02:37:00,29.2,24.4,30.09,West,273,7.0,11.0,82,0.00,,,0.00,Wunderground v.1.15,2013-03-17 06:37:00,
2013-03-17 02:41:00,29.1,24.0,30.09,West,276,7.0,9.0,81,0.00,,,0.00,Wunderground v.1.15,2013-03-17 06:41:00,
2013-03-17 02:42:00,29.1,24.0,30.09,West,277,7.0,9.0,81,0.00,,,0.00,Wunderground v.1.15,2013-03-17 06:42:00,
2013-03-17 02:44:00,29.1,24.0,30.09,West,271,8.0,11.0,81,0.00,,,0.00,Wunderground v.1.15,2013-03-17 06:44:00,
2013-03-17 02:46:00,29.1,24.0,30.09,West,281,8.0,11.0,81,0.00,,,0.00,Wunderground v.1.15,2013-03-17 06:46:00,
2013-03-17 02:49:00,29.1,24.0,30.09,West,265,8.0,9.0,81,0.00,,,0.00,Wunderground v.1.15,2013-03-17 06:49:00,
2013-03-17 02:51:00,29.0,23.9,30.09,West,274,7.0,10.0,81,0.00,,,0.00,Wunderground v.1.15,2013-03-17 06:51:00,
2013-03-17 02:53:00,29.0,23.6,30.10,West,265,6.0,10.0,80,0.00,,,0.00,Wunderground v.1.15,2013-03-17 06:53:00,
2013-03-17 02:56:00,28.9,23.5,30.10,West,279,6.0,10.0,80,0.00,,,0.00,Wunderground v.1.15,2013-03-17 06:56:00,
2013-03-17 02:57:00,28.9,23.5,30.10,WNW,288,6.0,10.0,80,0.00,,,0.00,Wunderground v.1.15,2013-03-17 06:57:00,
2013-03-17 02:58:00,28.9,23.5,30.10,WNW,296,6.0,10.0,80,0.00,,,0.00,Wunderground v.1.15,2013-03-17 06:58:00,
2013-03-17 02:59:00,28.9,23.5,30.10,WNW,284,5.0,7.0,80,0.00,,,0.00,Wunderground v.1.15,2013-03-17 06:59:00,
2013-03-17 03:02:00,28.8,23.4,30.11,WSW,253,5.0,11.0,80,0.00,,,0.00,Wunderground v.1.15,2013-03-17 07:02:00,
2013-03-17 03:05:00,28.8,23.1,30.11,WNW,284,6.0,11.0,79,0.00,,,0.00,Wunderground v.1.15,2013-03-17 07:05:00,
2013-03-17 03:07:00,28.7,23.0,30.11,West,275,6.0,11.0,79,0.00,,,0.00,Wunderground v.1.15,2013-03-17 07:07:00,
2013-03-17 03:08:00,28.7,23.0,30.11,WNW,284,6.0,11.0,79,0.00,,,0.00,Wunderground v.1.15,2013-03-17 07:08:00,
2013-03-17 03:10:00,28.6,22.9,30.11,West,262,5.0,6.0,79,0.00,,,0.00,Wunderground v.1.15,2013-03-17 07:10:00,
2013-03-17 03:12:00,28.6,22.9,30.11,West,280,5.0,8.0,79,0.00,,,0.00,Wunderground v.1.15,2013-03-17 07:12:00,
2013-03-17 03:16:00,28.5,22.8,30.11,West,268,5.0,8.0,79,0.00,,,0.00,Wunderground v.1.15,2013-03-17 07:16:00,
2013-03-17 03:18:00,28.4,22.7,30.11,SW,235,5.0,8.0,79,0.00,,,0.00,Wunderground v.1.15,2013-03-17 07:18:00,
2013-03-17 03:19:00,28.4,23.0,30.11,West,275,5.0,5.0,80,0.00,,,0.00,Wunderground v.1.15,2013-03-17 07:19:00,
2013-03-17 03:21:00,28.4,23.0,30.11,WSW,252,5.0,6.0,80,0.00,,,0.00,Wunderground v.1.15,2013-03-17 07:21:00,
2013-03-17 03:23:00,28.3,22.9,30.11,West,280,5.0,6.0,80,0.00,,,0.00,Wunderground v.1.15,2013-03-17 07:23:00,
2013-03-17 03:25:00,28.3,22.9,30.11,NNW,342,5.0,8.0,80,0.00,,,0.00,Wunderground v.1.15,2013-03-17 07:25:00,
2013-03-17 03:27:00,28.3,22.9,30.11,WNW,294,5.0,8.0,80,0.00,,,0.00,Wunderground v.1.15,2013-03-17 07:27:00,
2013-03-17 03:28:00,28.2,23.1,30.11,WNW,289,5.0,8.0,81,0.00,,,0.00,Wunderground v.1.15,2013-03-17 07:28:00,
2013-03-17 03:29:00,28.2,23.1,30.11,West,268,5.0,5.0,81,0.00,,,0.00,Wunderground v.1.15,2013-03-17 07:29:00,
2013-03-17 03:30:00,28.2,23.1,30.11,WNW,289,5.0,5.0,81,0.00,,,0.00,Wunderground v.1.15,2013-03-17 07:30:00,
2013-03-17 03:32:00,28.2,23.1,30.11,West,279,5.0,5.0,81,0.00,,,0.00,Wunderground v.1.15,2013-03-17 07:32:00,
2013-03-17 03:34:00,28.2,23.1,30.11,WNW,283,5.0,8.0,81,0.00,,,0.00,Wunderground v.1.15,2013-03-17 07:34:00,
2013-03-17 03:37:00,28.1,23.3,30.11,WNW,299,4.0,8.0,82,0.00,,,0.00,Wunderground v.1.15,2013-03-17 07:37:00,
2013-03-17 03:38:00,28.1,23.3,30.11,WNW,299,4.0,8.0,82,0.00,,,0.00,Wunderground v.1.15,2013-03-17 07:38:00,
2013-03-17 03:42:00,28.1,23.3,30.11,West,281,4.0,5.0,82,0.00,,,0.00,Wunderground v.1.15,2013-03-17 07:42:00,
2013-03-17 03:43:00,28.1,23.3,30.11,NNE,26,4.0,5.0,82,0.00,,,0.00,Wunderground v.1.15,2013-03-17 07:43:00,
2013-03-17 03:44:00,28.1,23.3,30.11,NNW,346,4.0,5.0,82,0.00,,,0.00,Wunderground v.1.15,2013-03-17 07:44:00,
2013-03-17 03:45:00,28.0,23.2,30.11,WNW,289,4.0,5.0,82,0.00,,,0.00,Wunderground v.1.15,2013-03-17 07:45:00,
2013-03-17 03:49:00,28.0,23.5,30.11,WSW,252,3.0,3.0,83,0.00,,,0.00,Wunderground v.1.15,2013-03-17 07:49:00,
2013-03-17 03:50:00,28.0,23.5,30.11,NNW,328,3.0,3.0,83,0.00,,,0.00,Wunderground v.1.15,2013-03-17 07:50:00,
2013-03-17 03:52:00,28.0,23.5,30.11,North,8,4.0,6.0,83,0.00,,,0.00,Wunderground v.1.15,2013-03-17 07:52:00,
2013-03-17 03:54:00,28.0,23.2,30.11,WNW,291,4.0,6.0,82,0.00,,,0.00,Wunderground v.1.15,2013-03-17 07:54:00,
2013-03-17 03:55:00,28.0,23.2,30.11,NW,310,4.0,7.0,82,0.00,,,0.00,Wunderground v.1.15,2013-03-17 07:55:00,
2013-03-17 03:57:00,27.9,23.1,30.11,WNW,289,4.0,7.0,82,0.00,,,0.00,Wunderground v.1.15,2013-03-17 07:57:00,
2013-03-17 04:01:00,27.9,23.1,30.12,NW,314,4.0,4.0,82,0.00,,,0.00,Wunderground v.1.15,2013-03-17 08:01:00,
2013-03-17 04:02:00,27.9,22.8,30.11,NNW,336,4.0,4.0,81,0.00,,,0.00,Wunderground v.1.15,2013-03-17 08:02:00,
2013-03-17 04:03:00,27.8,22.7,30.11,NW,324,3.0,4.0,81,0.00,,,0.00,Wunderground v.1.15,2013-03-17 08:03:00,
2013-03-17 04:06:00,27.8,22.4,30.12,North,11,3.0,4.0,80,0.00,,,0.00,Wunderground v.1.15,2013-03-17 08:06:00,
2013-03-17 04:08:00,27.7,22.3,30.11,North,351,3.0,9.0,80,0.00,,,0.00,Wunderground v.1.15,2013-03-17 08:08:00,
2013-03-17 04:11:00,27.7,22.3,30.12,NNW,347,4.0,6.0,80,0.00,,,0.00,Wunderground v.1.15,2013-03-17 08:11:00,
2013-03-17 04:13:00,27.7,22.3,30.12,West,260,5.0,6.0,80,0.00,,,0.00,Wunderground v.1.15,2013-03-17 08:13:00,
2013-03-17 04:14:00,27.7,22.3,30.12,West,261,4.0,6.0,80,0.00,,,0.00,Wunderground v.1.15,2013-03-17 08:14:00,
2013-03-17 04:17:00,27.6,22.2,30.12,West,274,5.0,6.0,80,0.00,,,0.00,Wunderground v.1.15,2013-03-17 08:17:00,
2013-03-17 04:18:00,27.6,22.2,30.12,NW,322,5.0,6.0,80,0.00,,,0.00,Wunderground v.1.15,2013-03-17 08:18:00,
2013-03-17 04:23:00,27.5,21.5,30.12,NNW,333,5.0,8.0,78,0.00,,,0.00,Wunderground v.1.15,2013-03-17 08:23:00,
2013-03-17 04:25:00,27.4,21.4,30.12,NW,310,5.0,8.0,78,0.00,,,0.00,Wunderground v.1.15,2013-03-17 08:25:00,
2013-03-17 04:26:00,27.4,21.4,30.12,NNW,336,5.0,8.0,78,0.00,,,0.00,Wunderground v.1.15,2013-03-17 08:26:00,
2013-03-17 04:28:00,27.3,21.3,30.12,NW,317,6.0,8.0,78,0.00,,,0.00,Wunderground v.1.15,2013-03-17 08:28:00,
2013-03-17 04:31:00,27.2,21.2,30.12,WNW,289,6.0,6.0,78,0.00,,,0.00,Wunderground v.1.15,2013-03-17 08:31:00,
2013-03-17 04:33:00,27.2,21.2,30.12,NW,319,5.0,6.0,78,0.00,,,0.00,Wunderground v.1.15,2013-03-17 08:33:00,
2013-03-17 04:34:00,27.1,20.8,30.12,NNW,340,6.0,6.0,77,0.00,,,0.00,Wunderground v.1.15,2013-03-17 08:34:00,
2013-03-17 04:37:00,27.0,20.7,30.12,NW,309,6.0,7.0,77,0.00,,,0.00,Wunderground v.1.15,2013-03-17 08:37:00,
2013-03-17 04:39:00,26.9,20.7,30.12,WNW,287,6.0,6.0,77,0.00,,,0.00,Wunderground v.1.15,2013-03-17 08:39:00,
2013-03-17 04:41:00,26.9,20.7,30.12,NNW,336,6.0,6.0,77,0.00,,,0.00,Wunderground v.1.15,2013-03-17 08:41:00,
2013-03-17 04:43:00,26.8,20.9,30.12,NNW,348,5.0,8.0,78,0.00,,,0.00,Wunderground v.1.15,2013-03-17 08:43:00,
2013-03-17 04:45:00,26.7,20.5,30.12,West,281,5.0,8.0,77,0.00,,,0.00,Wunderground v.1.15,2013-03-17 08:45:00,
2013-03-17 04:46:00,26.7,20.5,30.13,NNW,328,5.0,8.0,77,0.00,,,0.00,Wunderground v.1.15,2013-03-17 08:46:00,
2013-03-17 04:49:00,26.6,20.4,30.13,West,268,4.0,4.0,77,0.00,,,0.00,Wunderground v.1.15,2013-03-17 08:49:00,
2013-03-17 04:51:00,26.5,20.3,30.13,NW,306,4.0,5.0,77,0.00,,,0.00,Wunderground v.1.15,2013-03-17 08:51:00,
2013-03-17 04:53:00,26.3,20.1,30.13,North,351,4.0,5.0,77,0.00,,,0.00,Wunderground v.1.15,2013-03-17 08:53:00,
2013-03-17 04:55:00,26.2,20.0,30.13,WNW,282,4.0,5.0,77,0.00,,,0.00,Wunderground v.1.15,2013-03-17 08:55:00,
2013-03-17 04:56:00,26.2,20.0,30.13,West,269,4.0,5.0,77,0.00,,,0.00,Wunderground v.1.15,2013-03-17 08:56:00,
2013-03-17 04:57:00,26.1,19.9,30.13,WNW,303,4.0,5.0,77,0.00,,,0.00,Wunderground v.1.15,2013-03-17 08:57:00,
2013-03-17 04:59:00,26.0,19.8,30.13,NW,312,3.0,4.0,77,0.00,,,0.00,Wunderground v.1.15,2013-03-17 08:59:00,
2013-03-17 05:03:00,25.8,19.6,30.13,West,277,3.0,5.0,77,0.00,,,0.00,Wunderground v.1.15,2013-03-17 09:03:00,
2013-03-17 05:05:00,25.8,19.6,30.13,WNW,296,3.0,5.0,77,0.00,,,0.00,Wunderground v.1.15,2013-03-17 09:05:00,
2013-03-17 05:06:00,25.7,19.5,30.13,WNW,298,3.0,5.0,77,0.00,,,0.00,Wunderground v.1.15,2013-03-17 09:06:00,
2013-03-17 05:08:00,25.6,19.4,30.13,WNW,302,3.0,5.0,77,0.00,,,0.00,Wunderground v.1.15,2013-03-17 09:08:00,
2013-03-17 05:09:00,25.6,19.4,30.13,NW,305,3.0,3.0,77,0.00,,,0.00,Wunderground v.1.15,2013-03-17 09:09:00,
2013-03-17 05:10:00,25.5,19.3,30.13,NW,312,2.0,4.0,77,0.00,,,0.00,Wunderground v.1.15,2013-03-17 09:10:00,
2013-03-17 05:11:00,25.4,19.5,30.13,NNW,338,2.0,4.0,78,0.00,,,0.00,Wunderground v.1.15,2013-03-17 09:11:00,
2013-03-17 05:13:00,25.4,19.5,30.13,WNW,303,2.0,4.0,78,0.00,,,0.00,Wunderground v.1.15,2013-03-17 09:13:00,
2013-03-17 05:15:00,25.3,19.4,30.13,WNW,291,2.0,4.0,78,0.00,,,0.00,Wunderground v.1.15,2013-03-17 09:15:00,
2013-03-17 05:16:00,25.3,19.4,30.13,WNW,291,2.0,4.0,78,0.00,,,0.00,Wunderground v.1.15,2013-03-17 09:16:00,
2013-03-17 05:18:00,25.2,19.3,30.13,WNW,296,2.0,4.0,78,0.00,,,0.00,Wunderground v.1.15,2013-03-17 09:18:00,
2013-03-17 05:20:00,25.1,19.2,30.13,NW,310,2.0,2.0,78,0.00,,,0.00,Wunderground v.1.15,2013-03-17 09:20:00,
2013-03-17 05:21:00,25.1,19.2,30.13,WNW,283,2.0,2.0,78,0.00,,,0.00,Wunderground v.1.15,2013-03-17 09:21:00,
2013-03-17 05:22:00,25.1,19.5,30.13,West,274,2.0,2.0,79,0.00,,,0.00,Wunderground v.1.15,2013-03-17 09:22:00,
2013-03-17 05:26:00,25.0,19.4,30.13,WNW,287,1.0,2.0,79,0.00,,,0.00,Wunderground v.1.15,2013-03-17 09:26:00,
2013-03-17 05:27:00,24.9,19.3,30.13,WNW,299,1.0,2.0,79,0.00,,,0.00,Wunderground v.1.15,2013-03-17 09:27:00,
2013-03-17 05:28:00,24.9,19.3,30.14,WNW,296,1.0,2.0,79,0.00,,,0.00,Wunderground v.1.15,2013-03-17 09:28:00,
2013-03-17 05:31:00,24.8,19.5,30.14,WNW,291,1.0,1.0,80,0.00,,,0.00,Wunderground v.1.15,2013-03-17 09:31:00,
2013-03-17 05:34:00,24.7,19.1,30.14,West,277,1.0,3.0,79,0.00,,,0.00,Wunderground v.1.15,2013-03-17 09:34:00,
2013-03-17 05:35:00,24.7,19.1,30.14,West,273,1.0,3.0,79,0.00,,,0.00,Wunderground v.1.15,2013-03-17 09:35:00,
2013-03-17 05:37:00,24.6,19.0,30.14,WNW,291,1.0,3.0,79,0.00,,,0.00,Wunderground v.1.15,2013-03-17 09:37:00,
2013-03-17 05:40:00,24.5,18.9,30.15,West,281,2.0,2.0,79,0.00,,,0.00,Wunderground v.1.15,2013-03-17 09:40:00,
2013-03-17 05:41:00,24.5,18.9,30.15,West,281,1.0,2.0,79,0.00,,,0.00,Wunderground v.1.15,2013-03-17 09:41:00,
2013-03-17 05:42:00,24.5,19.2,30.15,WNW,282,1.0,2.0,80,0.00,,,0.00,Wunderground v.1.15,2013-03-17 09:42:00,
2013-03-17 05:47:00,24.4,19.1,30.14,West,281,1.0,2.0,80,0.00,,,0.00,Wunderground v.1.15,2013-03-17 09:47:00,
2013-03-17 05:49:00,24.3,19.0,30.14,West,281,1.0,1.0,80,0.00,,,0.00,Wunderground v.1.15,2013-03-17 09:49:00,
2013-03-17 05:50:00,24.3,19.0,30.14,WNW,282,1.0,2.0,80,0.00,,,0.00,Wunderground v.1.15,2013-03-17 09:50:00,
2013-03-17 05:51:00,24.3,19.0,30.14,WNW,282,1.0,2.0,80,0.00,,,0.00,Wunderground v.1.15,2013-03-17 09:51:00,
2013-03-17 05:55:00,24.2,19.2,30.14,WNW,291,1.0,2.0,81,0.00,,,0.00,Wunderground v.1.15,2013-03-17 09:55:00,
2013-03-17 05:57:00,24.2,19.2,30.15,WNW,291,1.0,2.0,81,0.00,,,0.00,Wunderground v.1.15,2013-03-17 09:57:00,
2013-03-17 06:01:00,24.2,19.2,30.15,WNW,291,1.0,1.0,81,0.00,,,0.00,Wunderground v.1.15,2013-03-17 10:01:00,
2013-03-17 06:05:00,24.2,19.2,30.15,NW,316,0.0,2.0,81,0.00,,,0.00,Wunderground v.1.15,2013-03-17 10:05:00,
2013-03-17 06:06:00,24.1,19.4,30.15,NW,312,0.0,2.0,82,0.00,,,0.00,Wunderground v.1.15,2013-03-17 10:06:00,
2013-03-17 06:08:00,24.2,19.5,30.15,WNW,296,1.0,2.0,82,0.00,,,0.00,Wunderground v.1.15,2013-03-17 10:08:00,
2013-03-17 06:11:00,24.2,19.2,30.15,WNW,291,1.0,1.0,81,0.00,,,0.00,Wunderground v.1.15,2013-03-17 10:11:00,
2013-03-17 06:13:00,24.2,19.5,30.15,West,273,1.0,1.0,82,0.00,,,0.00,Wunderground v.1.15,2013-03-17 10:13:00,
2013-03-17 06:16:00,24.3,19.6,30.16,WNW,294,1.0,3.0,82,0.00,,,0.00,Wunderground v.1.15,2013-03-17 10:16:00,
2013-03-17 06:18:00,24.3,19.3,30.16,West,273,1.0,3.0,81,0.00,,,0.00,Wunderground v.1.15,2013-03-17 10:18:00,
2013-03-17 06:22:00,24.3,19.3,30.16,WNW,289,1.0,1.0,81,0.00,,,0.00,Wunderground v.1.15,2013-03-17 10:22:00,
2013-03-17 06:23:00,24.4,19.4,30.16,WNW,288,1.0,1.0,81,0.00,,,0.00,Wunderground v.1.15,2013-03-17 10:23:00,
2013-03-17 06:26:00,24.3,19.3,30.16,NW,315,1.0,1.0,81,0.00,,,0.00,Wunderground v.1.15,2013-03-17 10:26:00,
2013-03-17 06:27:00,24.3,19.0,30.16,WNW,303,1.0,1.0,80,0.00,,,0.00,Wunderground v.1.15,2013-03-17 10:27:00,
2013-03-17 06:29:00,24.3,19.0,30.17,WNW,303,1.0,2.0,80,0.00,,,0.00,Wunderground v.1.15,2013-03-17 10:29:00,
2013-03-17 06:31:00,24.3,19.0,30.17,NW,326,1.0,4.0,80,0.00,,,0.00,Wunderground v.1.15,2013-03-17 10:31:00,
2013-03-17 06:32:00,24.3,18.7,30.17,WSW,255,2.0,4.0,79,0.00,,,0.00,Wunderground v.1.15,2013-03-17 10:32:00,
2013-03-17 06:35:00,24.3,18.7,30.17,WNW,284,2.0,4.0,79,0.00,,,0.00,Wunderground v.1.15,2013-03-17 10:35:00,
2013-03-17 06:36:00,24.3,18.7,30.17,NW,318,2.0,4.0,79,0.00,,,0.00,Wunderground v.1.15,2013-03-17 10:36:00,
2013-03-17 06:37:00,24.3,18.7,30.17,WNW,285,2.0,4.0,79,0.00,,,0.00,Wunderground v.1.15,2013-03-17 10:37:00,
2013-03-17 06:38:00,24.3,18.7,30.17,WNW,296,2.0,4.0,79,0.00,,,0.00,Wunderground v.1.15,2013-03-17 10:38:00,
2013-03-17 06:40:00,24.3,18.7,30.17,WNW,289,2.0,2.0,79,0.00,,,0.00,Wunderground v.1.15,2013-03-17 10:40:00,
2013-03-17 06:42:00,24.3,18.7,30.17,North,358,2.0,3.0,79,0.00,,,0.00,Wunderground v.1.15,2013-03-17 10:42:00,
2013-03-17 06:43:00,24.4,18.8,30.17,NW,313,2.0,3.0,79,0.00,,,0.00,Wunderground v.1.15,2013-03-17 10:43:00,
2013-03-17 06:44:00,24.4,18.8,30.17,NNW,346,2.0,5.0,79,0.00,,,0.00,Wunderground v.1.15,2013-03-17 10:44:00,
2013-03-17 06:48:00,24.4,18.8,30.17,NW,320,3.0,6.0,79,0.00,,,0.00,Wunderground v.1.15,2013-03-17 10:48:00,
2013-03-17 06:50:00,24.4,18.8,30.18,West,265,3.0,4.0,79,0.00,,,0.00,Wunderground v.1.15,2013-03-17 10:50:00,
2013-03-17 06:54:00,24.5,18.9,30.18,West,270,4.0,6.0,79,0.00,,,0.00,Wunderground v.1.15,2013-03-17 10:54:00,
2013-03-17 06:55:00,24.5,18.9,30.18,NW,318,4.0,6.0,79,0.00,,,0.00,Wunderground v.1.15,2013-03-17 10:55:00,
2013-03-17 06:56:00,24.5,18.9,30.18,WNW,303,4.0,6.0,79,0.00,,,0.00,Wunderground v.1.15,2013-03-17 10:56:00,
2013-03-17 07:01:00,24.4,18.5,30.18,NW,306,5.0,8.0,78,0.00,,,0.00,Wunderground v.1.15,2013-03-17 11:01:00,
2013-03-17 07:02:00,24.4,18.5,30.19,NW,314,5.0,8.0,78,0.00,,,0.00,Wunderground v.1.15,2013-03-17 11:02:00,
2013-03-17 07:04:00,24.4,18.5,30.19,NW,314,5.0,11.0,78,0.00,,,0.00,Wunderground v.1.15,2013-03-17 11:04:00,
2013-03-17 07:06:00,24.3,18.4,30.19,North,353,5.0,11.0,78,0.00,,,0.00,Wunderground v.1.15,2013-03-17 11:06:00,
2013-03-17 07:10:00,24.3,18.4,30.19,West,272,5.0,5.0,78,0.00,,,0.00,Wunderground v.1.15,2013-03-17 11:10:00,
2013-03-17 07:12:00,24.3,18.4,30.19,NW,306,4.0,5.0,78,0.00,,,0.00,Wunderground v.1.15,2013-03-17 11:12:00,
2013-03-17 07:13:00,24.2,18.6,30.19,NNW,346,4.0,5.0,79,0.00,,,0.00,Wunderground v.1.15,2013-03-17 11:13:00,
2013-03-17 07:17:00,24.1,18.2,30.19,North,349,4.0,5.0,78,0.00,,,0.00,Wunderground v.1.15,2013-03-17 11:17:00,
2013-03-17 07:18:00,24.1,18.2,30.19,NW,318,4.0,6.0,78,0.00,,,0.00,Wunderground v.1.15,2013-03-17 11:18:00,
2013-03-17 07:19:00,24.1,18.2,30.20,ESE,121,4.0,5.0,78,0.00,,,0.00,Wunderground v.1.15,2013-03-17 11:19:00,
2013-03-17 07:23:00,24.1,18.5,30.20,SW,217,4.0,5.0,79,0.00,,,0.00,Wunderground v.1.15,2013-03-17 11:23:00,
2013-03-17 07:24:00,24.1,18.5,30.20,NW,322,4.0,6.0,79,0.00,,,0.00,Wunderground v.1.15,2013-03-17 11:24:00,
2013-03-17 07:25:00,24.1,18.5,30.20,NW,306,4.0,6.0,79,0.00,,,0.00,Wunderground v.1.15,2013-03-17 11:25:00,
2013-03-17 07:26:00,24.0,18.4,30.20,WNW,298,4.0,6.0,79,0.00,,,0.00,Wunderground v.1.15,2013-03-17 11:26:00,
2013-03-17 07:31:00,23.9,18.3,30.20,East,81,3.0,4.0,79,0.00,,,0.00,Wunderground v.1.15,2013-03-17 11:31:00,
2013-03-17 07:32:00,23.9,18.0,30.20,SSE,147,4.0,4.0,78,0.00,,,0.00,Wunderground v.1.15,2013-03-17 11:32:00,
2013-03-17 07:33:00,23.8,17.9,30.20,ESE,117,3.0,4.0,78,0.00,,,0.00,Wunderground v.1.15,2013-03-17 11:33:00,
2013-03-17 07:37:00,23.7,17.8,30.20,SSE,164,3.0,4.0,78,0.00,,,0.00,Wunderground v.1.15,2013-03-17 11:37:00,
2013-03-17 07:40:00,23.6,17.7,30.21,WSW,251,3.0,3.0,78,0.00,,,0.00,Wunderground v.1.15,2013-03-17 11:40:00,
2013-03-17 07:41:00,23.5,17.6,30.21,SW,234,2.0,3.0,78,0.00,,,0.00,Wunderground v.1.15,2013-03-17 11:41:00,
2013-03-17 07:43:00,23.4,17.6,30.21,NNE,32,2.0,3.0,78,0.00,,,0.00,Wunderground v.1.15,2013-03-17 11:43:00,
2013-03-17 07:45:00,23.3,17.5,30.21,NNE,24,2.0,3.0,78,0.00,,,0.00,Wunderground v.1.15,2013-03-17 11:45:00,
2013-03-17 07:46:00,23.3,17.5,30.22,NNE,12,2.0,3.0,78,0.00,,,0.00,Wunderground v.1.15,2013-03-17 11:46:00,
2013-03-17 07:48:00,23.2,17.4,30.22,ENE,71,2.0,3.0,78,0.00,,,0.00,Wunderground v.1.15,2013-03-17 11:48:00,
2013-03-17 07:50:00,23.2,17.4,30.22,ENE,63,1.0,3.0,78,0.00,,,0.00,Wunderground v.1.15,2013-03-17 11:50:00,
2013-03-17 07:52:00,23.1,17.3,30.22,SSW,209,1.0,3.0,78,0.00,,,0.00,Wunderground v.1.15,2013-03-17 11:52:00,
2013-03-17 07:57:00,23.0,17.2,30.22,SSW,213,2.0,3.0,78,0.00,,,0.00,Wunderground v.1.15,2013-03-17 11:57:00,
2013-03-17 07:58:00,23.0,16.9,30.22,WNW,291,2.0,3.0,77,0.00,,,0.00,Wunderground v.1.15,2013-03-17 11:58:00,
2013-03-17 07:59:00,22.9,16.8,30.22,ENE,57,2.0,3.0,77,0.00,,,0.00,Wunderground v.1.15,2013-03-17 11:59:00,
2013-03-17 08:03:00,23.0,16.6,30.22,West,274,2.0,4.0,76,0.00,,,0.00,Wunderground v.1.15,2013-03-17 12:03:00,
2013-03-17 08:05:00,23.0,16.6,30.23,ESE,105,2.0,4.0,76,0.00,,,0.00,Wunderground v.1.15,2013-03-17 12:05:00,
2013-03-17 08:08:00,23.2,16.8,30.23,ENE,66,2.0,4.0,76,0.00,,,0.00,Wunderground v.1.15,2013-03-17 12:08:00,
2013-03-17 08:10:00,23.4,16.9,30.23,WSW,249,2.0,3.0,76,0.00,,,0.00,Wunderground v.1.15,2013-03-17 12:10:00,
2013-03-17 08:11:00,23.4,16.9,30.23,NE,42,2.0,3.0,76,0.00,,,0.00,Wunderground v.1.15,2013-03-17 12:11:00,
2013-03-17 08:14:00,23.5,17.0,30.23,East,100,2.0,3.0,76,0.00,,,0.00,Wunderground v.1.15,2013-03-17 12:14:00,
2013-03-17 08:15:00,23.6,16.8,30.23,ENE,60,2.0,3.0,75,0.00,,,0.00,Wunderground v.1.15,2013-03-17 12:15:00,
2013-03-17 08:17:00,23.6,16.8,30.24,ESE,106,2.0,3.0,75,0.00,,,0.00,Wunderground v.1.15,2013-03-17 12:17:00,
2013-03-17 08:19:00,23.7,16.9,30.24,ESE,109,2.0,2.0,75,0.00,,,0.00,Wunderground v.1.15,2013-03-17 12:19:00,
2013-03-17 08:21:00,23.7,16.9,30.24,ENE,59,2.0,2.0,75,0.00,,,0.00,Wunderground v.1.15,2013-03-17 12:21:00,
2013-03-17 08:22:00,23.7,16.6,30.24,NE,52,2.0,3.0,74,0.00,,,0.00,Wunderground v.1.15,2013-03-17 12:22:00,
2013-03-17 08:25:00,23.8,16.7,30.24,East,96,2.0,3.0,74,0.00,,,0.00,Wunderground v.1.15,2013-03-17 12:25:00,
2013-03-17 08:27:00,23.7,16.6,30.24,East,91,2.0,3.0,74,0.00,,,0.00,Wunderground v.1.15,2013-03-17 12:27:00,
2013-03-17 08:30:00,23.7,16.3,30.24,SE,126,2.0,2.0,73,0.00,,,0.00,Wunderground v.1.15,2013-03-17 12:30:00,
2013-03-17 08:32:00,23.6,16.2,30.24,ENE,59,2.0,3.0,73,0.00,,,0.00,Wunderground v.1.15,2013-03-17 12:32:00,
2013-03-17 08:33:00,23.5,16.1,30.25,ESE,107,2.0,3.0,73,0.00,,,0.00,Wunderground v.1.15,2013-03-17 12:33:00,
2013-03-17 08:34:00,23.5,16.1,30.25,ENE,59,2.0,3.0,73,0.00,,,0.00,Wunderground v.1.15,2013-03-17 12:34:00,
2013-03-17 08:36:00,23.5,16.4,30.25,East,98,2.0,3.0,74,0.00,,,0.00,Wunderground v.1.15,2013-03-17 12:36:00,
2013-03-17 08:38:00,23.4,16.0,30.25,NE,52,2.0,3.0,73,0.00,,,0.00,Wunderground v.1.15,2013-03-17 12:38:00,
2013-03-17 08:41:00,23.4,16.0,30.25,NNW,332,2.0,2.0,73,0.00,,,0.00,Wunderground v.1.15,2013-03-17 12:41:00,
2013-03-17 08:42:00,23.4,16.0,30.25,ENE,73,2.0,2.0,73,0.00,,,0.00,Wunderground v.1.15,2013-03-17 12:42:00,
2013-03-17 08:46:00,23.3,15.9,30.25,ENE,70,3.0,3.0,73,0.00,,,0.00,Wunderground v.1.15,2013-03-17 12:46:00,
2013-03-17 08:47:00,23.3,15.9,30.25,ESE,119,3.0,3.0,73,0.00,,,0.00,Wunderground v.1.15,2013-03-17 12:47:00,
2013-03-17 08:51:00,23.4,16.0,30.25,West,270,3.0,4.0,73,0.00,,,0.00,Wunderground v.1.15,2013-03-17 12:51:00,
2013-03-17 08:53:00,23.4,16.0,30.26,ENE,64,3.0,4.0,73,0.00,,,0.00,Wunderground v.1.15,2013-03-17 12:53:00,
2013-03-17 08:55:00,23.5,15.8,30.26,East,80,3.0,7.0,72,0.00,,,0.00,Wunderground v.1.15,2013-03-17 12:55:00,
2013-03-17 08:56:00,23.5,15.5,30.26,North,360,3.0,7.0,71,0.00,,,0.00,Wunderground v.1.15,2013-03-17 12:56:00,
2013-03-17 08:58:00,23.5,15.5,30.26,ENE,66,4.0,7.0,71,0.00,,,0.00,Wunderground v.1.15,2013-03-17 12:58:00,
2013-03-17 09:03:00,23.5,15.1,30.26,East,92,4.0,5.0,70,0.00,,,0.00,Wunderground v.1.15,2013-03-17 13:03:00,
2013-03-17 09:04:00,23.6,15.2,30.26,ESE,107,4.0,5.0,70,0.00,,,0.00,Wunderground v.1.15,2013-03-17 13:04:00,
2013-03-17 09:05:00,23.8,15.8,30.26,East,101,4.0,5.0,71,0.00,,,0.00,Wunderground v.1.15,2013-03-17 13:05:00,
2013-03-17 09:10:00,24.0,15.0,30.26,WSW,251,4.0,6.0,68,0.00,,,0.00,Wunderground v.1.15,2013-03-17 13:10:00,
2013-03-17 09:11:00,23.9,14.9,30.27,SE,145,4.0,6.0,68,0.00,,,0.00,Wunderground v.1.15,2013-03-17 13:11:00,
2013-03-17 09:12:00,23.9,14.9,30.27,ESE,111,4.0,6.0,68,0.00,,,0.00,Wunderground v.1.15,2013-03-17 13:12:00,
2013-03-17 09:15:00,23.8,14.8,30.27,ESE,104,4.0,6.0,68,0.00,,,0.00,Wunderground v.1.15,2013-03-17 13:15:00,
2013-03-17 09:16:00,23.8,14.8,30.28,NE,42,4.0,6.0,68,0.00,,,0.00,Wunderground v.1.15,2013-03-17 13:16:00,
2013-03-17 09:20:00,23.8,14.8,30.28,NNE,22,4.0,4.0,68,0.00,,,0.00,Wunderground v.1.15,2013-03-17 13:20:00,
2013-03-17 09:23:00,23.9,14.9,30.27,SW,216,4.0,5.0,68,0.00,,,0.00,Wunderground v.1.15,2013-03-17 13:23:00,
2013-03-17 09:24:00,23.9,14.9,30.27,WNW,289,4.0,5.0,68,0.00,,,0.00,Wunderground v.1.15,2013-03-17 13:24:00,
2013-03-17 09:25:00,24.0,15.3,30.27,East,98,4.0,5.0,69,0.00,,,0.00,Wunderground v.1.15,2013-03-17 13:25:00,
2013-03-17 09:29:00,24.4,15.7,30.28,NE,46,3.0,5.0,69,0.00,,,0.00,Wunderground v.1.15,2013-03-17 13:29:00,
2013-03-17 09:30:00,24.5,15.4,30.28,NW,315,3.0,3.0,68,0.00,,,0.00,Wunderground v.1.15,2013-03-17 13:30:00,
2013-03-17 09:32:00,24.7,15.3,30.28,NE,52,3.0,3.0,67,0.00,,,0.00,Wunderground v.1.15,2013-03-17 13:32:00,
2013-03-17 09:33:00,24.9,16.2,30.28,ENE,66,3.0,3.0,69,0.00,,,0.00,Wunderground v.1.15,2013-03-17 13:33:00,
2013-03-17 09:35:00,25.0,15.9,30.28,NW,304,3.0,3.0,68,0.00,,,0.00,Wunderground v.1.15,2013-03-17 13:35:00,
2013-03-17 09:37:00,25.4,15.6,30.28,ENE,74,3.0,3.0,66,0.00,,,0.00,Wunderground v.1.15,2013-03-17 13:37:00,
2013-03-17 09:38:00,25.5,15.7,30.28,NW,310,3.0,3.0,66,0.00,,,0.00,Wunderground v.1.15,2013-03-17 13:38:00,
2013-03-17 09:41:00,25.7,15.9,30.28,ENE,73,2.0,4.0,66,0.00,,,0.00,Wunderground v.1.15,2013-03-17 13:41:00,
2013-03-17 09:44:00,25.8,16.0,30.28,East,97,3.0,5.0,66,0.00,,,0.00,Wunderground v.1.15,2013-03-17 13:44:00,
2013-03-17 09:47:00,25.8,16.0,30.28,South,169,3.0,5.0,66,0.00,,,0.00,Wunderground v.1.15,2013-03-17 13:47:00,
2013-03-17 09:48:00,25.7,15.6,30.28,ESE,111,3.0,5.0,65,0.00,,,0.00,Wunderground v.1.15,2013-03-17 13:48:00,
2013-03-17 09:52:00,25.7,15.6,30.28,North,353,4.0,4.0,65,0.00,,,0.00,Wunderground v.1.15,2013-03-17 13:52:00,
2013-03-17 09:57:00,25.4,15.3,30.29,ENE,68,4.0,11.0,65,0.00,,,0.00,Wunderground v.1.15,2013-03-17 13:57:00,
2013-03-17 09:58:00,25.3,15.2,30.29,ESE,107,4.0,11.0,65,0.00,,,0.00,Wunderground v.1.15,2013-03-17 13:58:00,
2013-03-17 10:01:00,25.4,15.3,30.29,ENE,57,4.0,4.0,65,0.00,,,0.00,Wunderground v.1.15,2013-03-17 14:01:00,
2013-03-17 10:03:00,25.7,15.2,30.29,ENE,60,4.0,7.0,64,0.00,,,0.00,Wunderground v.1.15,2013-03-17 14:03:00,
2013-03-17 10:05:00,25.6,14.7,30.29,ENE,70,4.0,7.0,63,0.00,,,0.00,Wunderground v.1.15,2013-03-17 14:05:00,
2013-03-17 10:07:00,25.5,14.3,30.29,East,91,4.0,7.0,62,0.00,,,0.00,Wunderground v.1.15,2013-03-17 14:07:00,
2013-03-17 10:13:00,25.6,14.7,30.30,North,3,5.0,7.0,63,0.00,,,0.00,Wunderground v.1.15,2013-03-17 14:13:00,
2013-03-17 10:14:00,25.5,13.9,30.30,ESE,121,5.0,7.0,61,0.00,,,0.00,Wunderground v.1.15,2013-03-17 14:14:00,
2013-03-17 10:15:00,25.6,14.0,30.30,East,91,5.0,7.0,61,0.00,,,0.00,Wunderground v.1.15,2013-03-17 14:15:00,
2013-03-17 10:18:00,25.6,14.0,30.30,East,81,4.0,7.0,61,0.00,,,0.00,Wunderground v.1.15,2013-03-17 14:18:00,
2013-03-17 10:19:00,25.5,13.5,30.30,WSW,257,4.0,4.0,60,0.00,,,0.00,Wunderground v.1.15,2013-03-17 14:19:00,
2013-03-17 10:24:00,25.7,13.7,30.30,NE,52,4.0,8.0,60,0.00,,,0.00,Wunderground v.1.15,2013-03-17 14:24:00,
2013-03-17 10:28:00,26.0,13.6,30.30,WNW,284,4.0,8.0,59,0.00,,,0.00,Wunderground v.1.15,2013-03-17 14:28:00,
2013-03-17 10:29:00,26.1,12.9,30.30,NW,325,4.0,5.0,57,0.00,,,0.00,Wunderground v.1.15,2013-03-17 14:29:00,
2013-03-17 10:33:00,26.3,13.1,30.30,SE,133,4.0,7.0,57,0.00,,,0.00,Wunderground v.1.15,2013-03-17 14:33:00,
2013-03-17 10:34:00,26.3,13.1,30.30,East,99,4.0,7.0,57,0.00,,,0.00,Wunderground v.1.15,2013-03-17 14:34:00,
2013-03-17 10:35:00,26.5,14.1,30.30,WNW,300,4.0,7.0,59,0.00,,,0.00,Wunderground v.1.15,2013-03-17 14:35:00,
2013-03-17 10:39:00,26.6,13.8,30.30,ENE,59,4.0,7.0,58,0.00,,,0.00,Wunderground v.1.15,2013-03-17 14:39:00,
2013-03-17 10:42:00,27.0,14.2,30.30,North,350,3.0,8.0,58,0.00,,,0.00,Wunderground v.1.15,2013-03-17 14:42:00,
2013-03-17 10:44:00,27.0,14.2,30.30,WNW,302,3.0,8.0,58,0.00,,,0.00,Wunderground v.1.15,2013-03-17 14:44:00,
2013-03-17 10:46:00,27.1,13.9,30.30,NE,53,3.0,8.0,57,0.00,,,0.00,Wunderground v.1.15,2013-03-17 14:46:00,
2013-03-17 10:50:00,27.3,14.1,30.30,ESE,121,3.0,4.0,57,0.00,,,0.00,Wunderground v.1.15,2013-03-17 14:50:00,
2013-03-17 10:52:00,27.1,13.1,30.30,ENE,62,3.0,4.0,55,0.00,,,0.00,Wunderground v.1.15,2013-03-17 14:52:00,
2013-03-17 10:55:00,27.3,13.7,30.30,East,84,3.0,4.0,56,0.00,,,0.00,Wunderground v.1.15,2013-03-17 14:55:00,
2013-03-17 10:56:00,27.3,13.7,30.30,ENE,59,3.0,4.0,56,0.00,,,0.00,Wunderground v.1.15,2013-03-17 14:56:00,
2013-03-17 10:57:00,27.3,13.2,30.30,East,100,3.0,4.0,55,0.00,,,0.00,Wunderground v.1.15,2013-03-17 14:57:00,
2013-03-17 11:00:00,27.5,13.8,30.30,SW,227,3.0,3.0,56,0.00,,,0.00,Wunderground v.1.15,2013-03-17 15:00:00,
2013-03-17 11:03:00,28.1,14.8,30.30,ENE,73,2.0,3.0,57,0.00,,,0.00,Wunderground v.1.15,2013-03-17 15:03:00,
2013-03-17 11:05:00,28.6,14.9,30.30,ESE,109,2.0,3.0,56,0.00,,,0.00,Wunderground v.1.15,2013-03-17 15:05:00,
2013-03-17 11:08:00,28.8,14.6,30.30,West,273,2.0,3.0,55,0.00,,,0.00,Wunderground v.1.15,2013-03-17 15:08:00,
2013-03-17 11:10:00,29.1,15.3,30.30,NE,42,2.0,2.0,56,0.00,,,0.00,Wunderground v.1.15,2013-03-17 15:10:00,
2013-03-17 11:14:00,29.3,14.7,30.30,SW,227,2.0,2.0,54,0.00,,,0.00,Wunderground v.1.15,2013-03-17 15:14:00,
2013-03-17 11:19:00,29.6,15.0,30.30,North,5,2.0,3.0,54,0.00,,,0.00,Wunderground v.1.15,2013-03-17 15:19:00,
2013-03-17 11:20:00,29.5,14.9,30.30,North,5,2.0,4.0,54,0.00,,,0.00,Wunderground v.1.15,2013-03-17 15:20:00,
2013-03-17 11:24:00,29.9,15.7,30.30,East,81,2.0,4.0,55,0.00,,,0.00,Wunderground v.1.15,2013-03-17 15:24:00,
2013-03-17 11:27:00,30.0,15.8,30.30,ENE,59,2.0,5.0,55,0.00,,,0.00,Wunderground v.1.15,2013-03-17 15:27:00,
2013-03-17 11:30:00,29.8,15.2,30.31,ENE,77,2.0,2.0,54,0.00,,,0.00,Wunderground v.1.15,2013-03-17 15:30:00,
2013-03-17 11:32:00,30.1,16.7,30.30,ENE,78,2.0,3.0,57,0.00,,,0.00,Wunderground v.1.15,2013-03-17 15:32:00,
2013-03-17 11:35:00,30.5,17.1,30.30,NE,56,2.0,4.0,57,0.00,,,0.00,Wunderground v.1.15,2013-03-17 15:35:00,
2013-03-17 11:37:00,30.5,16.2,30.30,North,353,2.0,4.0,55,0.00,,,0.00,Wunderground v.1.15,2013-03-17 15:37:00,
2013-03-17 11:40:00,30.1,15.0,30.30,NNE,28,2.0,4.0,53,0.00,,,0.00,Wunderground v.1.15,2013-03-17 15:40:00,
2013-03-17 11:43:00,30.0,15.8,30.30,NE,50,3.0,4.0,55,0.00,,,0.00,Wunderground v.1.15,2013-03-17 15:43:00,
2013-03-17 11:45:00,29.7,15.5,30.30,ESE,103,3.0,4.0,55,0.00,,,0.00,Wunderground v.1.15,2013-03-17 15:45:00,
2013-03-17 11:48:00,29.4,15.2,30.30,North,355,3.0,4.0,55,0.00,,,0.00,Wunderground v.1.15,2013-03-17 15:48:00,
2013-03-17 11:49:00,29.2,15.0,30.30,ENE,66,3.0,4.0,55,0.00,,,0.00,Wunderground v.1.15,2013-03-17 15:49:00,
2013-03-17 11:50:00,28.9,14.7,30.30,ENE,69,3.0,4.0,55,0.00,,,0.00,Wunderground v.1.15,2013-03-17 15:50:00,
2013-03-17 11:53:00,29.0,15.2,30.30,ENE,74,3.0,4.0,56,0.00,,,0.00,Wunderground v.1.15,2013-03-17 15:53:00,
2013-03-17 11:54:00,29.2,16.2,30.30,ESE,108,3.0,4.0,58,0.00,,,0.00,Wunderground v.1.15,2013-03-17 15:54:00,
2013-03-17 11:56:00,29.5,16.5,30.30,South,179,3.0,6.0,58,0.00,,,0.00,Wunderground v.1.15,2013-03-17 15:56:00,
2013-03-17 11:59:00,29.5,16.1,30.30,South,179,3.0,6.0,57,0.00,,,0.00,Wunderground v.1.15,2013-03-17 15:59:00,
2013-03-17 12:01:00,29.5,15.7,30.30,South,179,3.0,4.0,56,0.00,,,0.00,Wunderground v.1.15,2013-03-17 16:01:00,
2013-03-17 12:05:00,29.7,16.7,30.30,South,179,3.0,4.0,58,0.00,,,0.00,Wunderground v.1.15,2013-03-17 16:05:00,
2013-03-17 12:06:00,29.9,16.5,30.30,South,179,3.0,6.0,57,0.00,,,0.00,Wunderground v.1.15,2013-03-17 16:06:00,
2013-03-17 12:12:00,30.3,16.9,30.30,South,179,3.0,3.0,57,0.00,,,0.00,Wunderground v.1.15,2013-03-17 16:12:00,
2013-03-17 12:16:00,30.5,16.7,30.30,South,179,3.0,6.0,56,0.00,,,0.00,Wunderground v.1.15,2013-03-17 16:16:00,
2013-03-17 12:17:00,30.3,15.6,30.30,South,179,4.0,6.0,54,0.00,,,0.00,Wunderground v.1.15,2013-03-17 16:17:00,
2013-03-17 12:20:00,30.4,16.1,30.30,South,179,3.0,3.0,55,0.00,,,0.00,Wunderground v.1.15,2013-03-17 16:20:00,
2013-03-17 12:22:00,30.4,16.1,30.30,South,179,4.0,4.0,55,0.00,,,0.00,Wunderground v.1.15,2013-03-17 16:22:00,
2013-03-17 12:25:00,30.5,16.7,30.30,South,179,4.0,4.0,56,0.00,,,0.00,Wunderground v.1.15,2013-03-17 16:25:00,
2013-03-17 12:28:00,31.0,16.7,30.30,South,179,3.0,4.0,55,0.00,,,0.00,Wunderground v.1.15,2013-03-17 16:28:00,
2013-03-17 12:33:00,31.4,16.2,30.30,South,179,3.0,6.0,53,0.00,,,0.00,Wunderground v.1.15,2013-03-17 16:33:00,
2013-03-17 12:36:00,31.3,15.7,30.31,South,179,4.0,6.0,52,0.00,,,0.00,Wunderground v.1.15,2013-03-17 16:36:00,
2013-03-17 12:38:00,31.3,15.7,30.31,South,179,4.0,6.0,52,0.00,,,0.00,Wunderground v.1.15,2013-03-17 16:38:00,
2013-03-17 12:43:00,32.0,16.8,30.31,South,179,2.0,4.0,53,0.00,,,0.00,Wunderground v.1.15,2013-03-17 16:43:00,
2013-03-17 12:44:00,32.0,16.8,30.31,South,179,2.0,4.0,53,0.00,,,0.00,Wunderground v.1.15,2013-03-17 16:44:00,
2013-03-17 12:47:00,32.0,16.8,30.30,South,179,2.0,4.0,53,0.00,,,0.00,Wunderground v.1.15,2013-03-17 16:47:00,
2013-03-17 12:48:00,32.0,17.2,30.30,South,179,2.0,4.0,54,0.00,,,0.00,Wunderground v.1.15,2013-03-17 16:48:00,
2013-03-17 12:52:00,31.8,16.2,30.30,South,179,3.0,6.0,52,0.00,,,0.00,Wunderground v.1.15,2013-03-17 16:52:00,
2013-03-17 12:55:00,31.5,15.4,30.30,South,179,3.0,6.0,51,0.00,,,0.00,Wunderground v.1.15,2013-03-17 16:55:00,
2013-03-17 12:58:00,31.7,16.5,30.30,South,179,3.0,6.0,53,0.00,,,0.00,Wunderground v.1.15,2013-03-17 16:58:00,
2013-03-17 13:01:00,32.0,16.3,30.30,South,179,2.0,3.0,52,0.00,,,0.00,Wunderground v.1.15,2013-03-17 17:01:00,
2013-03-17 13:02:00,31.9,16.2,30.30,South,179,2.0,3.0,52,0.00,,,0.00,Wunderground v.1.15,2013-03-17 17:02:00,
2013-03-17 13:04:00,31.8,15.7,30.31,South,179,2.0,5.0,51,0.00,,,0.00,Wunderground v.1.15,2013-03-17 17:04:00,
2013-03-17 13:05:00,31.8,15.7,30.31,South,179,2.0,5.0,51,0.00,,,0.00,Wunderground v.1.15,2013-03-17 17:05:00,
2013-03-17 13:09:00,31.9,16.2,30.30,South,179,3.0,4.0,52,0.00,,,0.00,Wunderground v.1.15,2013-03-17 17:09:00,
2013-03-17 13:11:00,32.1,16.4,30.30,South,179,3.0,4.0,52,0.00,,,0.00,Wunderground v.1.15,2013-03-17 17:11:00,
2013-03-17 13:15:00,32.3,16.2,30.30,South,179,3.0,4.0,51,0.00,,,0.00,Wunderground v.1.15,2013-03-17 17:15:00,
2013-03-17 13:16:00,32.2,17.0,30.30,South,179,2.0,4.0,53,0.00,,,0.00,Wunderground v.1.15,2013-03-17 17:16:00,
2013-03-17 13:18:00,32.2,17.0,30.30,South,179,2.0,4.0,53,0.00,,,0.00,Wunderground v.1.15,2013-03-17 17:18:00,
2013-03-17 13:21:00,32.3,17.5,30.30,South,179,2.0,2.0,54,0.00,,,0.00,Wunderground v.1.15,2013-03-17 17:21:00,
2013-03-17 13:24:00,32.2,16.5,30.30,South,179,2.0,3.0,52,0.00,,,0.00,Wunderground v.1.15,2013-03-17 17:24:00,
2013-03-17 13:25:00,32.1,16.4,30.30,South,179,1.0,3.0,52,0.00,,,0.01,Wunderground v.1.15,2013-03-17 17:25:00,
2013-03-17 13:27:00,32.1,16.4,30.30,South,179,1.0,3.0,52,0.00,,,0.01,Wunderground v.1.15,2013-03-17 17:27:00,
2013-03-17 13:29:00,32.1,16.4,30.30,South,179,1.0,3.0,52,0.00,,,0.01,Wunderground v.1.15,2013-03-17 17:29:00,
2013-03-17 13:30:00,32.0,15.9,30.30,South,179,2.0,4.0,51,0.00,,,0.01,Wunderground v.1.15,2013-03-17 17:30:00,
2013-03-17 13:32:00,31.9,15.3,30.30,South,179,2.0,7.0,50,0.00,,,0.01,Wunderground v.1.15,2013-03-17 17:32:00,
2013-03-17 13:34:00,32.2,16.1,30.30,South,179,3.0,7.0,51,0.00,,,0.01,Wunderground v.1.15,2013-03-17 17:34:00,
2013-03-17 13:37:00,32.2,15.6,30.30,South,179,3.0,7.0,50,0.00,,,0.01,Wunderground v.1.15,2013-03-17 17:37:00,
2013-03-17 13:40:00,31.7,14.7,30.30,South,179,4.0,4.0,49,0.00,,,0.01,Wunderground v.1.15,2013-03-17 17:40:00,
2013-03-17 13:42:00,31.5,15.4,30.30,South,179,4.0,4.0,51,0.00,,,0.01,Wunderground v.1.15,2013-03-17 17:42:00,
2013-03-17 13:43:00,31.6,16.0,30.30,South,179,4.0,4.0,52,0.00,,,0.01,Wunderground v.1.15,2013-03-17 17:43:00,
2013-03-17 13:46:00,32.0,17.2,30.30,South,179,4.0,4.0,54,0.00,,,0.01,Wunderground v.1.15,2013-03-17 17:46:00,
2013-03-17 13:48:00,32.1,16.0,30.30,South,179,3.0,7.0,51,0.00,,,0.01,Wunderground v.1.15,2013-03-17 17:48:00,
2013-03-17 13:49:00,32.0,16.3,30.30,South,180,3.0,5.0,52,0.00,,,0.01,Wunderground v.1.15,2013-03-17 17:49:00,
2013-03-17 13:51:00,31.9,15.8,30.30,South,179,3.0,5.0,51,0.00,,,0.01,Wunderground v.1.15,2013-03-17 17:51:00,
2013-03-17 13:54:00,32.0,15.9,30.30,South,179,3.0,5.0,51,0.00,,,0.01,Wunderground v.1.15,2013-03-17 17:54:00,
2013-03-17 13:56:00,32.1,16.4,30.30,South,179,3.0,5.0,52,0.00,,,0.01,Wunderground v.1.15,2013-03-17 17:56:00,
2013-03-17 14:01:00,32.3,15.7,30.30,South,179,3.0,3.0,50,0.00,,,0.01,Wunderground v.1.15,2013-03-17 18:01:00,
2013-03-17 14:02:00,32.4,15.8,30.30,South,179,3.0,3.0,50,0.00,,,0.01,Wunderground v.1.15,2013-03-17 18:02:00,
2013-03-17 14:05:00,32.3,15.3,30.30,South,179,3.0,4.0,49,0.00,,,0.01,Wunderground v.1.15,2013-03-17 18:05:00,
2013-03-17 14:07:00,32.5,16.8,30.29,South,179,3.0,7.0,52,0.00,,,0.01,Wunderground v.1.15,2013-03-17 18:07:00,
2013-03-17 14:08:00,32.5,16.8,30.29,South,179,3.0,7.0,52,0.00,,,0.01,Wunderground v.1.15,2013-03-17 18:08:00,
2013-03-17 14:11:00,32.5,16.4,30.30,South,179,4.0,6.0,51,0.00,,,0.01,Wunderground v.1.15,2013-03-17 18:11:00,
2013-03-17 14:14:00,31.4,14.9,30.29,South,179,5.0,8.0,50,0.00,,,0.01,Wunderground v.1.15,2013-03-17 18:14:00,
2013-03-17 14:17:00,31.0,15.4,30.29,South,179,5.0,8.0,52,0.00,,,0.01,Wunderground v.1.15,2013-03-17 18:17:00,
2013-03-17 14:19:00,31.5,17.6,30.30,South,179,4.0,4.0,56,0.00,,,0.01,Wunderground v.1.15,2013-03-17 18:19:00,
2013-03-17 14:23:00,32.9,17.2,30.29,South,179,2.0,4.0,52,0.00,,,0.01,Wunderground v.1.15,2013-03-17 18:23:00,
2013-03-17 14:24:00,33.3,18.0,30.29,South,179,2.0,4.0,53,0.00,,,0.01,Wunderground v.1.15,2013-03-17 18:24:00,
2013-03-17 14:26:00,33.6,18.3,30.29,South,178,2.0,4.0,53,0.00,,,0.01,Wunderground v.1.15,2013-03-17 18:26:00,
2013-03-17 14:29:00,33.7,17.5,30.29,South,179,3.0,3.0,51,0.00,,,0.01,Wunderground v.1.15,2013-03-17 18:29:00,
2013-03-17 14:31:00,33.6,17.8,30.29,South,178,3.0,5.0,52,0.00,,,0.01,Wunderground v.1.15,2013-03-17 18:31:00,
2013-03-17 14:34:00,33.9,19.0,30.29,South,178,3.0,5.0,54,0.00,,,0.01,Wunderground v.1.15,2013-03-17 18:34:00,
2013-03-17 14:37:00,34.2,18.8,30.28,South,178,2.0,7.0,53,0.00,,,0.01,Wunderground v.1.15,2013-03-17 18:37:00,
2013-03-17 14:41:00,34.0,16.8,30.28,South,178,2.0,4.0,49,0.00,,,0.01,Wunderground v.1.15,2013-03-17 18:41:00,
2013-03-17 14:44:00,33.9,18.6,30.28,South,178,3.0,5.0,53,0.00,,,0.02,Wunderground v.1.15,2013-03-17 18:44:00,
2013-03-17 14:48:00,34.1,18.3,30.28,South,178,2.0,5.0,52,0.00,,,0.02,Wunderground v.1.15,2013-03-17 18:48:00,
2013-03-17 14:50:00,34.0,17.7,30.28,South,178,2.0,3.0,51,0.00,,,0.02,Wunderground v.1.15,2013-03-17 18:50:00,
2013-03-17 14:51:00,34.1,17.4,30.28,South,179,2.0,3.0,50,0.00,,,0.02,Wunderground v.1.15,2013-03-17 18:51:00,
2013-03-17 14:57:00,34.0,17.3,30.28,South,178,2.0,5.0,50,0.00,,,0.02,Wunderground v.1.15,2013-03-17 18:57:00,
2013-03-17 15:00:00,33.6,16.5,30.28,South,178,3.0,5.0,49,0.00,,,0.02,Wunderground v.1.15,2013-03-17 19:00:00,
2013-03-17 15:03:00,33.7,17.5,30.28,South,178,3.0,5.0,51,0.00,,,0.02,Wunderground v.1.15,2013-03-17 19:03:00,
2013-03-17 15:05:00,33.7,17.5,30.28,South,178,3.0,5.0,51,0.00,,,0.02,Wunderground v.1.15,2013-03-17 19:05:00,
2013-03-17 15:06:00,33.8,18.5,30.28,South,178,3.0,5.0,53,0.00,,,0.02,Wunderground v.1.15,2013-03-17 19:06:00,
2013-03-17 15:09:00,33.9,18.6,30.28,South,178,3.0,3.0,53,0.00,,,0.02,Wunderground v.1.15,2013-03-17 19:09:00,
2013-03-17 15:13:00,34.1,17.8,30.28,South,178,2.0,3.0,51,0.00,,,0.02,Wunderground v.1.15,2013-03-17 19:13:00,
2013-03-17 15:15:00,34.0,16.8,30.28,South,178,3.0,5.0,49,0.00,,,0.02,Wunderground v.1.15,2013-03-17 19:15:00,
2013-03-17 15:18:00,33.6,16.0,30.27,South,178,4.0,9.0,48,0.00,,,0.02,Wunderground v.1.15,2013-03-17 19:18:00,
2013-03-17 15:19:00,33.4,16.3,30.27,South,178,4.0,4.0,49,0.00,,,0.02,Wunderground v.1.15,2013-03-17 19:19:00,
2013-03-17 15:23:00,32.8,16.6,30.27,South,178,4.0,4.0,51,0.00,,,0.02,Wunderground v.1.15,2013-03-17 19:23:00,
2013-03-17 15:26:00,33.3,16.6,30.27,South,178,3.0,4.0,50,0.00,,,0.02,Wunderground v.1.15,2013-03-17 19:26:00,
2013-03-17 15:27:00,33.3,17.5,30.27,South,178,3.0,4.0,52,0.00,,,0.02,Wunderground v.1.15,2013-03-17 19:27:00,
2013-03-17 15:30:00,33.5,17.7,30.27,South,178,2.0,3.0,52,0.00,,,0.02,Wunderground v.1.15,2013-03-17 19:30:00,
2013-03-17 15:32:00,33.7,18.4,30.27,South,178,2.0,5.0,53,0.00,,,0.02,Wunderground v.1.15,2013-03-17 19:32:00,
2013-03-17 15:35:00,34.2,17.9,30.27,South,178,2.0,5.0,51,0.00,,,0.02,Wunderground v.1.15,2013-03-17 19:35:00,
2013-03-17 15:37:00,34.1,17.4,30.27,South,178,2.0,5.0,50,0.00,,,0.02,Wunderground v.1.15,2013-03-17 19:37:00,
2013-03-17 15:40:00,33.9,17.2,30.27,South,178,3.0,3.0,50,0.00,,,0.02,Wunderground v.1.15,2013-03-17 19:40:00,
2013-03-17 15:41:00,33.7,16.5,30.27,South,178,3.0,7.0,49,0.00,,,0.02,Wunderground v.1.15,2013-03-17 19:41:00,
2013-03-17 15:43:00,33.7,17.9,30.27,South,178,4.0,7.0,52,0.00,,,0.02,Wunderground v.1.15,2013-03-17 19:43:00,
2013-03-17 15:45:00,33.7,17.9,30.27,South,178,3.0,7.0,52,0.00,,,0.02,Wunderground v.1.15,2013-03-17 19:45:00,
2013-03-17 15:47:00,33.9,19.0,30.27,South,178,3.0,7.0,54,0.00,,,0.02,Wunderground v.1.15,2013-03-17 19:47:00,
2013-03-17 15:48:00,34.0,16.8,30.27,South,178,3.0,7.0,49,0.00,,,0.02,Wunderground v.1.15,2013-03-17 19:48:00,
2013-03-17 15:50:00,33.8,16.6,30.27,South,177,3.0,3.0,49,0.00,,,0.02,Wunderground v.1.15,2013-03-17 19:50:00,
2013-03-17 15:55:00,33.6,17.4,30.27,South,178,3.0,5.0,51,0.00,,,0.02,Wunderground v.1.15,2013-03-17 19:55:00,
2013-03-17 15:56:00,33.6,16.9,30.27,South,177,3.0,7.0,50,0.00,,,0.02,Wunderground v.1.15,2013-03-17 19:56:00,
2013-03-17 15:57:00,33.6,16.9,30.27,South,178,4.0,7.0,50,0.00,,,0.02,Wunderground v.1.15,2013-03-17 19:57:00,
2013-03-17 15:58:00,33.6,16.9,30.27,South,178,4.0,8.0,50,0.00,,,0.02,Wunderground v.1.15,2013-03-17 19:58:00,
2013-03-17 16:01:00,33.7,16.1,30.27,South,178,4.0,6.0,48,0.00,,,0.03,Wunderground v.1.15,2013-03-17 20:01:00,
2013-03-17 16:04:00,33.0,15.9,30.27,South,178,4.0,7.0,49,0.00,,,0.03,Wunderground v.1.15,2013-03-17 20:04:00,
2013-03-17 16:07:00,33.1,16.9,30.27,South,178,4.0,7.0,51,0.00,,,0.03,Wunderground v.1.15,2013-03-17 20:07:00,
2013-03-17 16:08:00,33.1,16.5,30.27,South,178,4.0,7.0,50,0.00,,,0.03,Wunderground v.1.15,2013-03-17 20:08:00,
2013-03-17 16:09:00,33.1,16.0,30.27,South,177,4.0,4.0,49,0.00,,,0.03,Wunderground v.1.15,2013-03-17 20:09:00,
2013-03-17 16:12:00,33.2,16.5,30.27,South,178,4.0,5.0,50,0.00,,,0.03,Wunderground v.1.15,2013-03-17 20:12:00,
2013-03-17 16:14:00,33.3,16.6,30.27,South,178,3.0,7.0,50,0.00,,,0.03,Wunderground v.1.15,2013-03-17 20:14:00,
2013-03-17 16:16:00,33.3,16.6,30.27,South,178,3.0,7.0,50,0.00,,,0.03,Wunderground v.1.15,2013-03-17 20:16:00,
2013-03-17 16:19:00,33.7,18.4,30.27,South,178,3.0,3.0,53,0.00,,,0.03,Wunderground v.1.15,2013-03-17 20:19:00,
2013-03-17 16:21:00,33.9,18.1,30.27,South,178,3.0,4.0,52,0.00,,,0.03,Wunderground v.1.15,2013-03-17 20:21:00,
2013-03-17 16:22:00,33.9,18.1,30.27,South,178,3.0,4.0,52,0.00,,,0.03,Wunderground v.1.15,2013-03-17 20:22:00,
2013-03-17 16:24:00,34.0,18.2,30.27,South,178,2.0,4.0,52,0.00,,,0.03,Wunderground v.1.15,2013-03-17 20:24:00,
2013-03-17 16:26:00,34.0,17.3,30.27,South,177,3.0,5.0,50,0.00,,,0.03,Wunderground v.1.15,2013-03-17 20:26:00,
2013-03-17 16:27:00,33.7,16.5,30.27,South,178,3.0,6.0,49,0.00,,,0.03,Wunderground v.1.15,2013-03-17 20:27:00,
2013-03-17 16:29:00,33.1,15.0,30.27,South,178,3.0,3.0,47,0.00,,,0.03,Wunderground v.1.15,2013-03-17 20:29:00,
2013-03-17 16:31:00,32.9,15.8,30.27,South,178,3.0,5.0,49,0.00,,,0.03,Wunderground v.1.15,2013-03-17 20:31:00,
2013-03-17 16:35:00,33.2,17.5,30.27,South,178,4.0,6.0,52,0.00,,,0.03,Wunderground v.1.15,2013-03-17 20:35:00,
2013-03-17 16:36:00,33.2,17.0,30.27,South,178,4.0,6.0,51,0.00,,,0.03,Wunderground v.1.15,2013-03-17 20:36:00,
2013-03-17 16:39:00,33.4,17.6,30.27,South,178,4.0,6.0,52,0.00,,,0.03,Wunderground v.1.15,2013-03-17 20:39:00,
2013-03-17 16:41:00,33.5,17.3,30.27,South,178,4.0,8.0,51,0.00,,,0.03,Wunderground v.1.15,2013-03-17 20:41:00,
2013-03-17 16:42:00,33.5,17.7,30.27,South,178,4.0,8.0,52,0.00,,,0.03,Wunderground v.1.15,2013-03-17 20:42:00,
2013-03-17 16:43:00,33.5,17.7,30.27,South,178,4.0,8.0,52,0.00,,,0.03,Wunderground v.1.15,2013-03-17 20:43:00,
2013-03-17 16:45:00,33.5,17.3,30.26,South,178,4.0,8.0,51,0.00,,,0.03,Wunderground v.1.15,2013-03-17 20:45:00,
2013-03-17 16:49:00,33.5,17.3,30.26,South,178,4.0,4.0,51,0.00,,,0.03,Wunderground v.1.15,2013-03-17 20:49:00,
2013-03-17 16:51:00,33.5,17.3,30.26,South,178,4.0,9.0,51,0.00,,,0.03,Wunderground v.1.15,2013-03-17 20:51:00,
2013-03-17 16:53:00,33.3,17.1,30.26,South,177,4.0,9.0,51,0.00,,,0.03,Wunderground v.1.15,2013-03-17 20:53:00,
2013-03-17 16:56:00,33.3,17.1,30.26,South,177,4.0,9.0,51,0.00,,,0.03,Wunderground v.1.15,2013-03-17 20:56:00,
2013-03-17 16:58:00,32.9,16.7,30.26,South,178,4.0,9.0,51,0.00,,,0.03,Wunderground v.1.15,2013-03-17 20:58:00,
2013-03-17 17:02:00,32.3,17.1,30.26,South,178,4.0,8.0,53,0.00,,,0.03,Wunderground v.1.15,2013-03-17 21:02:00,
2013-03-17 17:03:00,32.3,17.1,30.26,South,178,4.0,8.0,53,0.00,,,0.03,Wunderground v.1.15,2013-03-17 21:03:00,
2013-03-17 17:05:00,32.0,16.3,30.26,South,178,5.0,8.0,52,0.00,,,0.03,Wunderground v.1.15,2013-03-17 21:05:00,
2013-03-17 17:08:00,31.9,16.2,30.26,South,178,5.0,8.0,52,0.00,,,0.03,Wunderground v.1.15,2013-03-17 21:08:00,
2013-03-17 17:10:00,31.8,16.2,30.26,South,178,4.0,6.0,52,0.00,,,0.03,Wunderground v.1.15,2013-03-17 21:10:00,
2013-03-17 17:11:00,31.7,16.5,30.26,South,178,4.0,7.0,53,0.00,,,0.03,Wunderground v.1.15,2013-03-17 21:11:00,
2013-03-17 17:13:00,31.6,16.0,30.26,South,178,5.0,7.0,52,0.00,,,0.03,Wunderground v.1.15,2013-03-17 21:13:00,
2013-03-17 17:16:00,31.7,16.1,30.26,South,178,4.0,7.0,52,0.00,,,0.03,Wunderground v.1.15,2013-03-17 21:16:00,
2013-03-17 17:18:00,31.7,16.5,30.26,South,178,4.0,7.0,53,0.00,,,0.03,Wunderground v.1.15,2013-03-17 21:18:00,
2013-03-17 17:20:00,31.8,16.2,30.26,South,178,5.0,9.0,52,0.00,,,0.03,Wunderground v.1.15,2013-03-17 21:20:00,
2013-03-17 17:22:00,31.6,16.0,30.25,South,178,5.0,9.0,52,0.00,,,0.03,Wunderground v.1.15,2013-03-17 21:22:00,
2013-03-17 17:24:00,31.3,15.7,30.25,South,178,5.0,9.0,52,0.00,,,0.03,Wunderground v.1.15,2013-03-17 21:24:00,
2013-03-17 17:25:00,31.3,16.1,30.25,South,178,5.0,9.0,53,0.00,,,0.03,Wunderground v.1.15,2013-03-17 21:25:00,
2013-03-17 17:26:00,31.4,16.7,30.25,South,178,5.0,9.0,54,0.00,,,0.03,Wunderground v.1.15,2013-03-17 21:26:00,
2013-03-17 17:29:00,31.9,17.5,30.25,South,178,5.0,5.0,55,0.00,,,0.03,Wunderground v.1.15,2013-03-17 21:29:00,
2013-03-17 17:30:00,32.0,16.8,30.25,South,178,5.0,5.0,53,0.00,,,0.03,Wunderground v.1.15,2013-03-17 21:30:00,
2013-03-17 17:32:00,32.0,16.8,30.25,South,178,5.0,5.0,53,0.00,,,0.03,Wunderground v.1.15,2013-03-17 21:32:00,
2013-03-17 17:33:00,31.8,16.2,30.25,South,177,5.0,5.0,52,0.00,,,0.03,Wunderground v.1.15,2013-03-17 21:33:00,
2013-03-17 17:35:00,31.7,16.9,30.25,South,178,4.0,5.0,54,0.00,,,0.03,Wunderground v.1.15,2013-03-17 21:35:00,
2013-03-17 17:37:00,31.5,16.3,30.25,South,178,4.0,5.0,53,0.00,,,0.03,Wunderground v.1.15,2013-03-17 21:37:00,
2013-03-17 17:40:00,31.1,16.8,30.26,South,178,4.0,4.0,55,0.00,,,0.03,Wunderground v.1.15,2013-03-17 21:40:00,
2013-03-17 17:41:00,31.1,16.4,30.26,South,178,4.0,6.0,54,0.00,,,0.03,Wunderground v.1.15,2013-03-17 21:41:00,
2013-03-17 17:44:00,31.4,17.1,30.26,South,178,4.0,6.0,55,0.00,,,0.03,Wunderground v.1.15,2013-03-17 21:44:00,
2013-03-17 17:45:00,31.5,17.2,30.26,South,178,4.0,6.0,55,0.00,,,0.03,Wunderground v.1.15,2013-03-17 21:45:00,
2013-03-17 17:46:00,31.5,16.7,30.26,South,178,4.0,6.0,54,0.00,,,0.03,Wunderground v.1.15,2013-03-17 21:46:00,
2013-03-17 17:48:00,31.6,16.8,30.26,South,178,3.0,6.0,54,0.00,,,0.03,Wunderground v.1.15,2013-03-17 21:48:00,
2013-03-17 17:51:00,31.4,15.3,30.26,South,178,4.0,8.0,51,0.00,,,0.03,Wunderground v.1.15,2013-03-17 21:51:00,
2013-03-17 17:52:00,31.2,15.6,30.26,South,178,4.0,8.0,52,0.00,,,0.03,Wunderground v.1.15,2013-03-17 21:52:00,
2013-03-17 17:54:00,31.3,16.6,30.26,South,178,5.0,8.0,54,0.00,,,0.03,Wunderground v.1.15,2013-03-17 21:54:00,
2013-03-17 17:59:00,31.4,16.2,30.26,South,178,6.0,6.0,53,0.00,,,0.03,Wunderground v.1.15,2013-03-17 21:59:00,
2013-03-17 18:01:00,31.4,17.1,30.27,South,178,5.0,6.0,55,0.00,,,0.03,Wunderground v.1.15,2013-03-17 22:01:00,
2013-03-17 18:03:00,31.3,16.6,30.26,South,178,5.0,8.0,54,0.00,,,0.03,Wunderground v.1.15,2013-03-17 22:03:00,
2013-03-17 18:06:00,31.2,16.5,30.26,South,178,4.0,8.0,54,0.00,,,0.03,Wunderground v.1.15,2013-03-17 22:06:00,
2013-03-17 18:08:00,31.3,17.0,30.26,South,178,4.0,8.0,55,0.00,,,0.03,Wunderground v.1.15,2013-03-17 22:08:00,
2013-03-17 18:09:00,31.3,17.0,30.26,South,178,4.0,5.0,55,0.00,,,0.03,Wunderground v.1.15,2013-03-17 22:09:00,
2013-03-17 18:13:00,31.2,16.5,30.26,ESE,112,4.0,6.0,54,0.00,,,0.03,Wunderground v.1.15,2013-03-17 22:13:00,
2013-03-17 18:14:00,31.0,16.3,30.26,ENE,76,5.0,6.0,54,0.00,,,0.03,Wunderground v.1.15,2013-03-17 22:14:00,
2013-03-17 18:18:00,31.2,16.9,30.26,WSW,239,4.0,6.0,55,0.00,,,0.03,Wunderground v.1.15,2013-03-17 22:18:00,
2013-03-17 18:20:00,31.1,16.8,30.26,NE,48,4.0,6.0,55,0.00,,,0.03,Wunderground v.1.15,2013-03-17 22:20:00,
2013-03-17 18:23:00,31.1,16.8,30.26,ESE,116,4.0,6.0,55,0.00,,,0.03,Wunderground v.1.15,2013-03-17 22:23:00,
2013-03-17 18:24:00,31.1,16.8,30.26,NNE,32,4.0,6.0,55,0.00,,,0.03,Wunderground v.1.15,2013-03-17 22:24:00,
2013-03-17 18:28:00,30.9,16.6,30.26,NNE,32,4.0,6.0,55,0.00,,,0.03,Wunderground v.1.15,2013-03-17 22:28:00,
2013-03-17 18:31:00,30.9,16.6,30.26,East,84,4.0,5.0,55,0.00,,,0.03,Wunderground v.1.15,2013-03-17 22:31:00,
2013-03-17 18:32:00,30.7,16.0,30.26,East,95,4.0,5.0,54,0.00,,,0.03,Wunderground v.1.15,2013-03-17 22:32:00,
2013-03-17 18:33:00,30.6,15.9,30.27,ESE,107,4.0,5.0,54,0.00,,,0.03,Wunderground v.1.15,2013-03-17 22:33:00,
2013-03-17 18:36:00,30.2,16.0,30.27,ENE,78,4.0,5.0,55,0.00,,,0.03,Wunderground v.1.15,2013-03-17 22:36:00,
2013-03-17 18:37:00,30.1,15.9,30.27,NE,45,4.0,5.0,55,0.00,,,0.03,Wunderground v.1.15,2013-03-17 22:37:00,
2013-03-17 18:43:00,30.0,16.6,30.26,NE,52,5.0,7.0,57,0.00,,,0.03,Wunderground v.1.15,2013-03-17 22:43:00,
2013-03-17 18:44:00,30.0,16.6,30.26,NNE,32,5.0,9.0,57,0.00,,,0.03,Wunderground v.1.15,2013-03-17 22:44:00,
2013-03-17 18:46:00,29.8,16.4,30.26,North,354,5.0,9.0,57,0.00,,,0.03,Wunderground v.1.15,2013-03-17 22:46:00,
2013-03-17 18:48:00,29.8,16.4,30.26,NW,326,5.0,9.0,57,0.00,,,0.03,Wunderground v.1.15,2013-03-17 22:48:00,
2013-03-17 18:52:00,29.8,16.4,30.26,North,3,5.0,5.0,57,0.00,,,0.03,Wunderground v.1.15,2013-03-17 22:52:00,
2013-03-17 18:54:00,29.6,16.2,30.26,East,95,5.0,5.0,57,0.00,,,0.03,Wunderground v.1.15,2013-03-17 22:54:00,
2013-03-17 18:57:00,29.6,16.6,30.26,NNE,33,4.0,5.0,58,0.00,,,0.03,Wunderground v.1.15,2013-03-17 22:57:00,
2013-03-17 18:59:00,29.5,16.5,30.26,North,7,4.0,9.0,58,0.00,,,0.03,Wunderground v.1.15,2013-03-17 22:59:00,
2013-03-17 19:01:00,29.5,16.5,30.26,NE,40,3.0,9.0,58,0.00,,,0.03,Wunderground v.1.15,2013-03-17 23:01:00,
2013-03-17 19:06:00,29.3,16.3,30.26,NE,48,4.0,9.0,58,0.00,,,0.03,Wunderground v.1.15,2013-03-17 23:06:00,
2013-03-17 19:07:00,29.2,16.6,30.26,NE,50,4.0,9.0,59,0.00,,,0.03,Wunderground v.1.15,2013-03-17 23:07:00,
2013-03-17 19:09:00,29.3,16.7,30.26,East,88,4.0,4.0,59,0.00,,,0.03,Wunderground v.1.15,2013-03-17 23:09:00,
2013-03-17 19:12:00,29.1,16.9,30.26,NNE,21,4.0,4.0,60,0.00,,,0.03,Wunderground v.1.15,2013-03-17 23:12:00,
2013-03-17 19:14:00,28.9,16.4,30.26,NE,56,3.0,6.0,59,0.00,,,0.03,Wunderground v.1.15,2013-03-17 23:14:00,
2013-03-17 19:15:00,28.8,16.3,30.26,NW,310,3.0,6.0,59,0.00,,,0.03,Wunderground v.1.15,2013-03-17 23:15:00,
2013-03-17 19:17:00,28.5,16.0,30.27,WNW,303,4.0,8.0,59,0.00,,,0.03,Wunderground v.1.15,2013-03-17 23:17:00,
2013-03-17 19:19:00,28.3,16.2,30.27,North,354,4.0,4.0,60,0.00,,,0.03,Wunderground v.1.15,2013-03-17 23:19:00,
2013-03-17 19:20:00,28.2,16.1,30.27,NE,49,4.0,12.0,60,0.00,,,0.03,Wunderground v.1.15,2013-03-17 23:20:00,
2013-03-17 19:21:00,28.0,15.5,30.27,NE,45,5.0,12.0,59,0.00,,,0.03,Wunderground v.1.15,2013-03-17 23:21:00,
2013-03-17 19:27:00,27.5,16.2,30.27,North,351,4.0,12.0,62,0.00,,,0.03,Wunderground v.1.15,2013-03-17 23:27:00,
2013-03-17 19:28:00,27.5,16.2,30.27,NNE,19,5.0,12.0,62,0.00,,,0.03,Wunderground v.1.15,2013-03-17 23:28:00,
2013-03-17 19:30:00,27.4,16.1,30.27,NW,306,4.0,6.0,62,0.00,,,0.03,Wunderground v.1.15,2013-03-17 23:30:00,
2013-03-17 19:33:00,27.2,15.9,30.28,NNE,26,4.0,12.0,62,0.00,,,0.03,Wunderground v.1.15,2013-03-17 23:33:00,
2013-03-17 19:34:00,27.1,15.8,30.28,ESE,119,4.0,12.0,62,0.00,,,0.03,Wunderground v.1.15,2013-03-17 23:34:00,
2013-03-17 19:37:00,26.9,15.6,30.28,NE,38,5.0,12.0,62,0.00,,,0.03,Wunderground v.1.15,2013-03-17 23:37:00,
2013-03-17 19:39:00,26.7,15.4,30.28,NE,49,5.0,5.0,62,0.00,,,0.03,Wunderground v.1.15,2013-03-17 23:39:00,
2013-03-17 19:40:00,26.7,15.8,30.28,ENE,57,5.0,6.0,63,0.00,,,0.03,Wunderground v.1.15,2013-03-17 23:40:00,
2013-03-17 19:42:00,26.6,16.1,30.28,ENE,69,4.0,6.0,64,0.00,,,0.03,Wunderground v.1.15,2013-03-17 23:42:00,
2013-03-17 19:43:00,26.5,15.6,30.28,North,350,4.0,6.0,63,0.00,,,0.03,Wunderground v.1.15,2013-03-17 23:43:00,
2013-03-17 19:47:00,26.3,15.8,30.28,ESE,114,4.0,6.0,64,0.00,,,0.03,Wunderground v.1.15,2013-03-17 23:47:00,
2013-03-17 19:49:00,26.2,15.7,30.28,North,11,4.0,5.0,64,0.00,,,0.03,Wunderground v.1.15,2013-03-17 23:49:00,
2013-03-17 19:50:00,26.2,15.7,30.28,ENE,73,4.0,5.0,64,0.00,,,0.03,Wunderground v.1.15,2013-03-17 23:50:00,
2013-03-17 19:53:00,26.1,15.9,30.28,South,175,4.0,5.0,65,0.00,,,0.03,Wunderground v.1.15,2013-03-17 23:53:00,
2013-03-17 19:54:00,26.0,15.8,30.28,NNW,340,4.0,5.0,65,0.00,,,0.03,Wunderground v.1.15,2013-03-17 23:54:00,
2013-03-17 19:57:00,25.9,16.1,30.28,NNE,21,3.0,5.0,66,0.00,,,0.03,Wunderground v.1.15,2013-03-17 23:57:00,
2013-03-17 20:01:00,25.8,16.0,30.28,NNW,346,3.0,4.0,66,0.00,,,0.03,Wunderground v.1.15,2013-03-18 00:01:00,
2013-03-17 20:02:00,25.7,15.9,30.29,NE,42,3.0,10.0,66,0.00,,,0.03,Wunderground v.1.15,2013-03-18 00:02:00,
2013-03-17 20:04:00,25.7,15.6,30.29,ESE,114,4.0,10.0,65,0.00,,,0.03,Wunderground v.1.15,2013-03-18 00:04:00,
2013-03-17 20:06:00,25.6,15.5,30.29,NE,40,4.0,10.0,65,0.00,,,0.03,Wunderground v.1.15,2013-03-18 00:06:00,
2013-03-17 20:08:00,25.5,15.4,30.29,ENE,74,4.0,10.0,65,0.00,,,0.03,Wunderground v.1.15,2013-03-18 00:08:00,
2013-03-17 20:09:00,25.4,15.3,30.29,NNW,348,4.0,4.0,65,0.00,,,0.03,Wunderground v.1.15,2013-03-18 00:09:00,
2013-03-17 20:10:00,25.4,15.6,30.29,North,7,4.0,5.0,66,0.00,,,0.03,Wunderground v.1.15,2013-03-18 00:10:00,
2013-03-17 20:12:00,25.4,16.0,30.29,NNW,334,4.0,5.0,67,0.00,,,0.03,Wunderground v.1.15,2013-03-18 00:12:00,
2013-03-17 20:15:00,25.3,15.9,30.29,NE,43,4.0,6.0,67,0.00,,,0.03,Wunderground v.1.15,2013-03-18 00:15:00,
2013-03-17 20:16:00,25.3,15.9,30.29,East,101,4.0,6.0,67,0.00,,,0.03,Wunderground v.1.15,2013-03-18 00:16:00,
2013-03-17 20:17:00,25.2,15.8,30.29,NE,40,4.0,6.0,67,0.00,,,0.03,Wunderground v.1.15,2013-03-18 00:17:00,
2013-03-17 20:20:00,25.1,15.7,30.29,South,185,4.0,7.0,67,0.00,,,0.03,Wunderground v.1.15,2013-03-18 00:20:00,
2013-03-17 20:22:00,25.0,15.6,30.29,NE,53,4.0,7.0,67,0.00,,,0.03,Wunderground v.1.15,2013-03-18 00:22:00,
2013-03-17 20:24:00,24.9,15.5,30.29,WNW,299,4.0,7.0,67,0.00,,,0.03,Wunderground v.1.15,2013-03-18 00:24:00,
2013-03-17 20:27:00,24.7,15.3,30.29,NE,45,4.0,7.0,67,0.00,,,0.03,Wunderground v.1.15,2013-03-18 00:27:00,
2013-03-17 20:28:00,24.6,15.5,30.29,NE,55,4.0,7.0,68,0.00,,,0.03,Wunderground v.1.15,2013-03-18 00:28:00,
2013-03-17 20:29:00,24.6,15.2,30.29,East,84,4.0,4.0,67,0.00,,,0.03,Wunderground v.1.15,2013-03-18 00:29:00,
2013-03-17 20:30:00,24.5,15.1,30.29,NE,55,4.0,6.0,67,0.00,,,0.03,Wunderground v.1.15,2013-03-18 00:30:00,
2013-03-17 20:33:00,24.4,15.3,30.29,NNE,32,4.0,8.0,68,0.00,,,0.03,Wunderground v.1.15,2013-03-18 00:33:00,
2013-03-17 20:34:00,24.3,15.3,30.29,NW,306,4.0,8.0,68,0.00,,,0.03,Wunderground v.1.15,2013-03-18 00:34:00,
2013-03-17 20:36:00,24.2,15.2,30.29,North,351,4.0,8.0,68,0.00,,,0.03,Wunderground v.1.15,2013-03-18 00:36:00,
2013-03-17 20:37:00,24.2,15.5,30.29,NE,53,4.0,8.0,69,0.00,,,0.03,Wunderground v.1.15,2013-03-18 00:37:00,
2013-03-17 20:38:00,24.2,15.5,30.30,NNW,340,4.0,8.0,69,0.00,,,0.03,Wunderground v.1.15,2013-03-18 00:38:00,
2013-03-17 20:41:00,24.1,15.1,30.30,ENE,76,4.0,4.0,68,0.00,,,0.03,Wunderground v.1.15,2013-03-18 00:41:00,
2013-03-17 20:42:00,24.0,15.3,30.30,ENE,59,4.0,4.0,69,0.00,,,0.03,Wunderground v.1.15,2013-03-18 00:42:00,
2013-03-17 20:43:00,24.0,15.3,30.30,ENE,66,4.0,4.0,69,0.00,,,0.03,Wunderground v.1.15,2013-03-18 00:43:00,
2013-03-17 20:46:00,23.9,15.5,30.30,NNW,327,3.0,4.0,70,0.00,,,0.03,Wunderground v.1.15,2013-03-18 00:46:00,
2013-03-17 20:47:00,23.8,15.4,30.30,ENE,66,3.0,4.0,70,0.00,,,0.03,Wunderground v.1.15,2013-03-18 00:47:00,
2013-03-17 20:48:00,23.8,15.1,30.30,SSE,168,3.0,4.0,69,0.00,,,0.03,Wunderground v.1.15,2013-03-18 00:48:00,
2013-03-17 20:53:00,23.7,15.3,30.30,ENE,57,3.0,3.0,70,0.00,,,0.03,Wunderground v.1.15,2013-03-18 00:53:00,
2013-03-17 20:54:00,23.6,15.2,30.30,ENE,59,3.0,3.0,70,0.00,,,0.03,Wunderground v.1.15,2013-03-18 00:54:00,
2013-03-17 20:55:00,23.6,15.2,30.30,WNW,284,3.0,3.0,70,0.00,,,0.03,Wunderground v.1.15,2013-03-18 00:55:00,
2013-03-17 20:58:00,23.5,15.1,30.30,NNW,343,3.0,5.0,70,0.00,,,0.03,Wunderground v.1.15,2013-03-18 00:58:00,
2013-03-17 21:01:00,23.5,15.5,30.30,North,5,2.0,7.0,71,0.00,,,0.03,Wunderground v.1.15,2013-03-18 01:01:00,
2013-03-17 21:02:00,23.4,15.4,30.30,West,279,3.0,8.0,71,0.00,,,0.03,Wunderground v.1.15,2013-03-18 01:02:00,
2013-03-17 21:04:00,23.4,15.1,30.30,NE,46,3.0,8.0,70,0.00,,,0.03,Wunderground v.1.15,2013-03-18 01:04:00,
2013-03-17 21:05:00,23.3,15.0,30.30,ENE,62,3.0,8.0,70,0.00,,,0.03,Wunderground v.1.15,2013-03-18 01:05:00,
2013-03-17 21:06:00,23.2,14.9,30.30,WNW,288,4.0,8.0,70,0.00,,,0.03,Wunderground v.1.15,2013-03-18 01:06:00,
2013-03-17 21:07:00,23.2,14.9,30.30,ENE,64,3.0,8.0,70,0.00,,,0.03,Wunderground v.1.15,2013-03-18 01:07:00,
2013-03-17 21:12:00,23.1,15.1,30.30,ENE,59,3.0,5.0,71,0.00,,,0.03,Wunderground v.1.15,2013-03-18 01:12:00,
2013-03-17 21:13:00,23.1,15.1,30.30,North,1,3.0,5.0,71,0.00,,,0.03,Wunderground v.1.15,2013-03-18 01:13:00,
2013-03-17 21:15:00,23.0,15.0,30.30,SSW,200,3.0,6.0,71,0.00,,,0.03,Wunderground v.1.15,2013-03-18 01:15:00,
2013-03-17 21:18:00,23.0,15.0,30.30,WNW,291,3.0,6.0,71,0.00,,,0.03,Wunderground v.1.15,2013-03-18 01:18:00,
2013-03-17 21:19:00,23.0,15.0,30.30,NE,38,3.0,5.0,71,0.00,,,0.03,Wunderground v.1.15,2013-03-18 01:19:00,
2013-03-17 21:20:00,23.0,15.0,30.30,ENE,67,3.0,5.0,71,0.00,,,0.03,Wunderground v.1.15,2013-03-18 01:20:00,
2013-03-17 21:23:00,22.9,14.6,30.30,NE,55,4.0,5.0,70,0.00,,,0.03,Wunderground v.1.15,2013-03-18 01:23:00,
2013-03-17 21:24:00,22.9,14.6,30.30,ENE,63,4.0,5.0,70,0.00,,,0.03,Wunderground v.1.15,2013-03-18 01:24:00,
2013-03-17 21:26:00,22.8,14.5,30.29,ENE,63,4.0,5.0,70,0.00,,,0.03,Wunderground v.1.15,2013-03-18 01:26:00,
2013-03-17 21:30:00,22.8,14.8,30.29,NE,56,4.0,4.0,71,0.00,,,0.03,Wunderground v.1.15,2013-03-18 01:30:00,
2013-03-17 21:32:00,22.7,14.7,30.29,NE,38,4.0,7.0,71,0.00,,,0.03,Wunderground v.1.15,2013-03-18 01:32:00,
2013-03-17 21:34:00,22.7,14.7,30.29,NNE,33,4.0,7.0,71,0.00,,,0.03,Wunderground v.1.15,2013-03-18 01:34:00,
2013-03-17 21:35:00,22.7,14.7,30.29,North,358,4.0,7.0,71,0.00,,,0.03,Wunderground v.1.15,2013-03-18 01:35:00,
2013-03-17 21:37:00,22.6,14.6,30.29,ENE,77,4.0,7.0,71,0.00,,,0.03,Wunderground v.1.15,2013-03-18 01:37:00,
2013-03-17 21:40:00,22.6,14.6,30.29,North,358,4.0,4.0,71,0.00,,,0.03,Wunderground v.1.15,2013-03-18 01:40:00,
2013-03-17 21:41:00,22.5,14.8,30.29,North,357,4.0,4.0,72,0.00,,,0.03,Wunderground v.1.15,2013-03-18 01:41:00,
2013-03-17 21:45:00,22.4,14.4,30.29,East,88,4.0,6.0,71,0.00,,,0.03,Wunderground v.1.15,2013-03-18 01:45:00,
2013-03-17 21:46:00,22.4,14.4,30.29,NE,48,4.0,6.0,71,0.00,,,0.03,Wunderground v.1.15,2013-03-18 01:46:00,
2013-03-17 21:48:00,22.4,14.7,30.29,ENE,70,4.0,6.0,72,0.00,,,0.03,Wunderground v.1.15,2013-03-18 01:48:00,
2013-03-17 21:51:00,22.3,14.6,30.29,ENE,74,4.0,4.0,72,0.00,,,0.03,Wunderground v.1.15,2013-03-18 01:51:00,
2013-03-17 21:53:00,22.3,14.6,30.29,North,357,4.0,6.0,72,0.00,,,0.03,Wunderground v.1.15,2013-03-18 01:53:00,
2013-03-17 21:54:00,22.2,14.5,30.29,NNE,24,4.0,6.0,72,0.00,,,0.03,Wunderground v.1.15,2013-03-18 01:54:00,
2013-03-17 21:55:00,22.2,14.5,30.29,ENE,60,4.0,6.0,72,0.00,,,0.03,Wunderground v.1.15,2013-03-18 01:55:00,
2013-03-17 21:59:00,22.1,14.4,30.29,East,88,4.0,6.0,72,0.00,,,0.03,Wunderground v.1.15,2013-03-18 01:59:00,
2013-03-17 22:01:00,22.1,14.4,30.29,ENE,66,4.0,4.0,72,0.00,,,0.03,Wunderground v.1.15,2013-03-18 02:01:00,
2013-03-17 22:04:00,22.1,14.4,30.29,NNE,29,4.0,5.0,72,0.00,,,0.03,Wunderground v.1.15,2013-03-18 02:04:00,
2013-03-17 22:07:00,22.0,14.3,30.29,ENE,57,4.0,7.0,72,0.00,,,0.03,Wunderground v.1.15,2013-03-18 02:07:00,
2013-03-17 22:09:00,22.0,14.3,30.29,ENE,74,5.0,5.0,72,0.00,,,0.03,Wunderground v.1.15,2013-03-18 02:09:00,
2013-03-17 22:10:00,22.0,14.3,30.29,NE,43,5.0,5.0,72,0.00,,,0.03,Wunderground v.1.15,2013-03-18 02:10:00,
2013-03-17 22:12:00,22.0,14.7,30.29,ESE,105,4.0,5.0,73,0.00,,,0.03,Wunderground v.1.15,2013-03-18 02:12:00,
2013-03-17 22:14:00,22.0,14.7,30.29,ENE,74,4.0,5.0,73,0.00,,,0.03,Wunderground v.1.15,2013-03-18 02:14:00,
2013-03-17 22:17:00,21.9,14.6,30.29,NNW,336,4.0,5.0,73,0.00,,,0.03,Wunderground v.1.15,2013-03-18 02:17:00,
2013-03-17 22:19:00,21.9,14.6,30.29,NE,53,3.0,3.0,73,0.00,,,0.03,Wunderground v.1.15,2013-03-18 02:19:00,
2013-03-17 22:21:00,21.8,14.5,30.29,ENE,62,3.0,3.0,73,0.00,,,0.03,Wunderground v.1.15,2013-03-18 02:21:00,
2013-03-17 22:22:00,21.8,14.8,30.29,ENE,62,3.0,3.0,74,0.00,,,0.03,Wunderground v.1.15,2013-03-18 02:22:00,
2013-03-17 22:25:00,21.7,14.7,30.29,East,85,3.0,4.0,74,0.00,,,0.03,Wunderground v.1.15,2013-03-18 02:25:00,
2013-03-17 22:26:00,21.7,14.7,30.29,North,5,2.0,4.0,74,0.00,,,0.03,Wunderground v.1.15,2013-03-18 02:26:00,
2013-03-17 22:29:00,21.6,14.6,30.29,ENE,73,2.0,2.0,74,0.00,,,0.03,Wunderground v.1.15,2013-03-18 02:29:00,
2013-03-17 22:30:00,21.7,14.7,30.29,ENE,66,2.0,2.0,74,0.00,,,0.03,Wunderground v.1.15,2013-03-18 02:30:00,
2013-03-17 22:32:00,21.6,14.6,30.28,NNE,14,2.0,2.0,74,0.00,,,0.03,Wunderground v.1.15,2013-03-18 02:32:00,
2013-03-17 22:33:00,21.6,14.9,30.28,NW,317,2.0,2.0,75,0.00,,,0.03,Wunderground v.1.15,2013-03-18 02:33:00,
2013-03-17 22:36:00,21.5,14.8,30.28,NE,38,2.0,4.0,75,0.00,,,0.03,Wunderground v.1.15,2013-03-18 02:36:00,
2013-03-17 22:37:00,21.5,14.8,30.28,North,7,2.0,4.0,75,0.00,,,0.03,Wunderground v.1.15,2013-03-18 02:37:00,
2013-03-17 22:38:00,21.5,14.8,30.28,North,358,2.0,4.0,75,0.00,,,0.03,Wunderground v.1.15,2013-03-18 02:38:00,
2013-03-17 22:43:00,21.4,14.7,30.28,NNE,25,2.0,6.0,75,0.00,,,0.03,Wunderground v.1.15,2013-03-18 02:43:00,
2013-03-17 22:44:00,21.4,14.7,30.28,NE,48,3.0,6.0,75,0.00,,,0.03,Wunderground v.1.15,2013-03-18 02:44:00,
2013-03-17 22:46:00,21.4,14.7,30.28,ENE,73,3.0,6.0,75,0.00,,,0.03,Wunderground v.1.15,2013-03-18 02:46:00,
2013-03-17 22:47:00,21.4,14.7,30.28,NE,56,3.0,6.0,75,0.00,,,0.03,Wunderground v.1.15,2013-03-18 02:47:00,
2013-03-17 22:49:00,21.3,14.6,30.27,ENE,66,3.0,3.0,75,0.00,,,0.03,Wunderground v.1.15,2013-03-18 02:49:00,
2013-03-17 22:50:00,21.3,14.6,30.28,ENE,57,3.0,5.0,75,0.00,,,0.03,Wunderground v.1.15,2013-03-18 02:50:00,
2013-03-17 22:52:00,21.3,14.6,30.28,North,355,3.0,5.0,75,0.00,,,0.03,Wunderground v.1.15,2013-03-18 02:52:00,
2013-03-17 22:56:00,21.3,14.6,30.27,ENE,62,3.0,5.0,75,0.00,,,0.03,Wunderground v.1.15,2013-03-18 02:56:00,
2013-03-17 22:57:00,21.3,14.6,30.27,East,92,3.0,5.0,75,0.00,,,0.03,Wunderground v.1.15,2013-03-18 02:57:00,
2013-03-17 22:58:00,21.3,14.6,30.27,NE,50,3.0,5.0,75,0.00,,,0.03,Wunderground v.1.15,2013-03-18 02:58:00,
2013-03-17 23:02:00,21.3,14.9,30.27,WNW,289,3.0,5.0,76,0.00,,,0.03,Wunderground v.1.15,2013-03-18 03:02:00,
2013-03-17 23:04:00,21.2,14.8,30.26,ESE,112,4.0,6.0,76,0.00,,,0.03,Wunderground v.1.15,2013-03-18 03:04:00,
2013-03-17 23:06:00,21.2,14.8,30.26,NNW,336,4.0,6.0,76,0.00,,,0.03,Wunderground v.1.15,2013-03-18 03:06:00,
2013-03-17 23:08:00,21.2,14.8,30.26,NW,310,4.0,6.0,76,0.00,,,0.03,Wunderground v.1.15,2013-03-18 03:08:00,
2013-03-17 23:09:00,21.2,14.8,30.26,NE,48,4.0,4.0,76,0.00,,,0.03,Wunderground v.1.15,2013-03-18 03:09:00,
2013-03-17 23:10:00,21.2,14.8,30.26,WNW,303,4.0,4.0,76,0.00,,,0.03,Wunderground v.1.15,2013-03-18 03:10:00,
2013-03-17 23:14:00,21.2,14.8,30.26,NE,48,4.0,9.0,76,0.00,,,0.03,Wunderground v.1.15,2013-03-18 03:14:00,
2013-03-17 23:15:00,21.2,14.8,30.26,NE,55,4.0,9.0,76,0.00,,,0.03,Wunderground v.1.15,2013-03-18 03:15:00,
2013-03-17 23:17:00,21.1,14.7,30.26,SSE,161,4.0,9.0,76,0.00,,,0.03,Wunderground v.1.15,2013-03-18 03:17:00,
2013-03-17 23:19:00,21.1,14.7,30.26,North,1,4.0,4.0,76,0.00,,,0.03,Wunderground v.1.15,2013-03-18 03:19:00,
2013-03-17 23:20:00,21.2,15.1,30.25,NNE,18,4.0,5.0,77,0.00,,,0.03,Wunderground v.1.15,2013-03-18 03:20:00,
2013-03-17 23:21:00,21.2,15.1,30.25,SE,132,4.0,5.0,77,0.00,,,0.03,Wunderground v.1.15,2013-03-18 03:21:00,
2013-03-17 23:24:00,21.2,15.1,30.25,ENE,59,4.0,7.0,77,0.00,,,0.03,Wunderground v.1.15,2013-03-18 03:24:00,
2013-03-17 23:27:00,21.1,15.0,30.25,NE,55,4.0,7.0,77,0.00,,,0.03,Wunderground v.1.15,2013-03-18 03:27:00,
2013-03-17 23:29:00,21.1,15.0,30.25,ENE,71,4.0,4.0,77,0.00,,,0.03,Wunderground v.1.15,2013-03-18 03:29:00,
2013-03-17 23:30:00,21.1,15.0,30.25,ENE,66,4.0,4.0,77,0.00,,,0.03,Wunderground v.1.15,2013-03-18 03:30:00,
2013-03-17 23:33:00,21.1,15.0,30.25,SE,144,4.0,5.0,77,0.00,,,0.03,Wunderground v.1.15,2013-03-18 03:33:00,
2013-03-17 23:34:00,21.1,15.0,30.25,NE,56,4.0,5.0,77,0.00,,,0.03,Wunderground v.1.15,2013-03-18 03:34:00,
2013-03-17 23:35:00,21.1,15.0,30.25,ENE,71,4.0,5.0,77,0.00,,,0.03,Wunderground v.1.15,2013-03-18 03:35:00,
2013-03-17 23:37:00,21.1,15.0,30.25,NE,38,4.0,5.0,77,0.00,,,0.03,Wunderground v.1.15,2013-03-18 03:37:00,
2013-03-17 23:38:00,21.1,15.0,30.25,East,85,4.0,5.0,77,0.00,,,0.03,Wunderground v.1.15,2013-03-18 03:38:00,